Observation data for Hobbs on 01/17/2019      Previous  Date  Next       Current Mesonet Observations  Soil Data  Daily Summary Page  Observations in Plain Language
KHO1 170600Z 27004KT 06/M01 A3021 RMK A01 T00591006  RH  063%=      5-min Rain = 0
KHO1 170601Z 27004KT 06/M01 A3021 RMK A01 T00591007  RH  063%=      5-min Rain = 0
KHO1 170602Z 28005KT 06/M01 A3021 RMK A01 T00591007  RH  063%=      5-min Rain = 0
KHO1 170603Z 27005KT 06/M01 A3021 RMK A01 T00581007  RH  063%=      5-min Rain = 0
KHO1 170604Z 27006KT 06/M01 A3021 RMK A01 T00581007  RH  063%=      5-min Rain = 0
KHO1 170605Z 27007KT 06/M01 A3021 RMK A01 T00581007  RH  063%=      5-min Rain = 0
KHO1 170606Z 27006KT 06/M01 A3021 RMK A01 T00581007  RH  063%=      5-min Rain = 0
KHO1 170607Z 27006KT 06/M01 A3021 RMK A01 T00571007  RH  063%=      5-min Rain = 0
KHO1 170608Z 28007KT 06/M01 A3021 RMK A01 T00571007  RH  064%=      5-min Rain = 0
KHO1 170609Z 28006KT 06/M01 A3021 RMK A01 T00561006  RH  064%=      5-min Rain = 0
KHO1 170610Z 27006KT 06/M01 A3021 RMK A01 T00561006  RH  064%=      5-min Rain = 0
KHO1 170611Z 27006KT 06/M01 A3021 RMK A01 T00551006  RH  065%=      5-min Rain = 0
KHO1 170612Z 27007KT 05/M01 A3021 RMK A01 T00541006  RH  065%=      5-min Rain = 0
KHO1 170613Z 27006KT 05/M01 A3021 RMK A01 T00541007  RH  065%=      5-min Rain = 0
KHO1 170614Z 27007KT 05/M01 A3021 RMK A01 T00531007  RH  065%=      5-min Rain = 0
KHO1 170615Z 27008KT 05/M01 A3021 RMK A01 T00531007  RH  066%=      5-min Rain = 0
KHO1 170616Z 27007KT 05/M01 A3021 RMK A01 T00531006  RH  066%=      5-min Rain = 0
KHO1 170617Z 27008KT 05/M01 A3021 RMK A01 T00531007  RH  065%=      5-min Rain = 0
KHO1 170618Z 27008KT 05/M01 A3021 RMK A01 T00541007  RH  065%=      5-min Rain = 0
KHO1 170619Z 27007KT 05/M01 A302 RMK A01 T00531007  RH  065%=      5-min Rain = 0
KHO1 170620Z 27008KT 05/M01 A3021 RMK A01 T00531007  RH  066%=      5-min Rain = 0
KHO1 170621Z 27008KT 05/M01 A302 RMK A01 T00521007  RH  066%=      5-min Rain = 0
KHO1 170622Z 28008KT 05/M01 A3021 RMK A01 T00521006  RH  066%=      5-min Rain = 0
KHO1 170623Z 28008KT 05/M01 A3021 RMK A01 T00531006  RH  066%=      5-min Rain = 0
KHO1 170624Z 28008KT 05/M01 A3021 RMK A01 T00541006  RH  065%=      5-min Rain = 0
KHO1 170625Z 28008KT 05/M01 A3021 RMK A01 T00541007  RH  065%=      5-min Rain = 0
KHO1 170626Z 28008KT 06/M01 A3021 RMK A01 T00551007  RH  064%=      5-min Rain = 0
KHO1 170627Z 27008KT 06/M01 A3021 RMK A01 T00561007  RH  064%=      5-min Rain = 0
KHO1 170628Z 28008KT 06/M01 A3021 RMK A01 T00571007  RH  063%=      5-min Rain = 0
KHO1 170629Z 28008KT 06/M01 A3021 RMK A01 T00581008  RH  063%=      5-min Rain = 0
KHO1 170630Z 28008KT 06/M01 A3021 RMK A01 T00601008  RH  062%=      5-min Rain = 0
KHO1 170631Z 28008KT 06/M01 A3021 RMK A01 T00621009  RH  060%=      5-min Rain = 0
KHO1 170632Z 28007KT 07/M01 A3021 RMK A01 T00651009  RH  059%=      5-min Rain = 0
KHO1 170633Z 29007KT 07/M01 A302 RMK A01 T00671009  RH  058%=      5-min Rain = 0
KHO1 170634Z 29007KT 07/M01 A302 RMK A01 T00681010  RH  058%=      5-min Rain = 0
KHO1 170635Z 29007KT 07/M01 A302 RMK A01 T00691010  RH  057%=      5-min Rain = 0
KHO1 170636Z 29008KT 07/M01 A302 RMK A01 T00701010  RH  057%=      5-min Rain = 0
KHO1 170637Z 30008KT 07/M01 A302 RMK A01 T00701010  RH  057%=      5-min Rain = 0
KHO1 170638Z 30007KT 07/M01 A302 RMK A01 T00701010  RH  057%=      5-min Rain = 0
KHO1 170639Z 31008KT 07/M01 A302 RMK A01 T00681009  RH  058%=      5-min Rain = 0
KHO1 170640Z 31008KT 07/M01 A302 RMK A01 T00661009  RH  058%=      5-min Rain = 0
KHO1 170641Z 31010KT 07/M01 A302 RMK A01 T00651010  RH  059%=      5-min Rain = 0
KHO1 170642Z 32008KT 07/M01 A302 RMK A01 T00661010  RH  058%=      5-min Rain = 0
KHO1 170643Z 32008KT 07/M01 A302 RMK A01 T00681012  RH  057%=      5-min Rain = 0
KHO1 170644Z 32009KT 07/M01 A302 RMK A01 T00731013  RH  055%=      5-min Rain = 0
KHO1 170645Z 32009KT 08/M01 A302 RMK A01 T00781013  RH  052%=      5-min Rain = 0
KHO1 170646Z 32009KT 08/M01 A302 RMK A01 T00831014  RH  051%=      5-min Rain = 0
KHO1 170647Z 32009KT 09/M01 A302 RMK A01 T00861014  RH  049%=      5-min Rain = 0
KHO1 170648Z 32009KT 09/M01 A302 RMK A01 T00871014  RH  049%=      5-min Rain = 0
KHO1 170649Z 32009KT 09/M01 A302 RMK A01 T00871014  RH  049%=      5-min Rain = 0
KHO1 170650Z 32008KT 09/M01 A302 RMK A01 T00861014  RH  049%=      5-min Rain = 0
KHO1 170651Z 32008KT 09/M01 A302 RMK A01 T00851014  RH  050%=      5-min Rain = 0
KHO1 170652Z 32008KT 09/M01 A302 RMK A01 T00861014  RH  049%=      5-min Rain = 0
KHO1 170653Z 32007KT 09/M02 A302 RMK A01 T00861015  RH  049%=      5-min Rain = 0
KHO1 170654Z 32007KT 09/M02 A302 RMK A01 T00861015  RH  049%=      5-min Rain = 0
KHO1 170655Z 32008KT 09/M02 A302 RMK A01 T00871015  RH  049%=      5-min Rain = 0
KHO1 170656Z 32007KT 09/M01 A3021 RMK A01 T00871014  RH  049%=      5-min Rain = 0
KHO1 170657Z 32007KT 09/M01 A302 RMK A01 T00881014  RH  049%=      5-min Rain = 0
KHO1 170658Z 33008KT 09/M01 A302 RMK A01 T00881014  RH  049%=      5-min Rain = 0
KHO1 170659Z 33007KT 09/M01 A302 RMK A01 T00881014  RH  049%=      5-min Rain = 0
KHO1 170700Z 33008KT 09/M01 A302 RMK A01 T00861013  RH  050%=      5-min Rain = 0
KHO1 170701Z 33007KT 08/M01 A302 RMK A01 T00841013  RH  050%=      5-min Rain = 0
KHO1 170702Z 34007KT 08/M01 A302 RMK A01 T00821013  RH  051%=      5-min Rain = 0
KHO1 170703Z 34007KT 08/M01 A302 RMK A01 T00801013  RH  052%=      5-min Rain = 0
KHO1 170704Z 33007KT 08/M01 A302 RMK A01 T00791013  RH  052%=      5-min Rain = 0
KHO1 170705Z 33008KT 08/M01 A302 RMK A01 T00781013  RH  053%=      5-min Rain = 0
KHO1 170706Z 33007KT 08/M01 A302 RMK A01 T00771012  RH  053%=      5-min Rain = 0
KHO1 170707Z 33008KT 08/M01 A302 RMK A01 T00751012  RH  054%=      5-min Rain = 0
KHO1 170708Z 33007KT 08/M01 A302 RMK A01 T00751012  RH  054%=      5-min Rain = 0
KHO1 170709Z 33008KT 07/M01 A302 RMK A01 T00741012  RH  054%=      5-min Rain = 0
KHO1 170710Z 33008KT 08/M01 A302 RMK A01 T00771013  RH  053%=      5-min Rain = 0
KHO1 170711Z 33008KT 08/M01 A302 RMK A01 T00801013  RH  052%=      5-min Rain = 0
KHO1 170712Z 33009KT 08/M01 A302 RMK A01 T00821013  RH  051%=      5-min Rain = 0
KHO1 170713Z 33009KT 08/M01 A302 RMK A01 T00841013  RH  051%=      5-min Rain = 0
KHO1 170714Z 32008KT 09/M01 A302 RMK A01 T00851013  RH  050%=      5-min Rain = 0
KHO1 170715Z 32008KT 09/M01 A302 RMK A01 T00861012  RH  050%=      5-min Rain = 0
KHO1 170716Z 32008KT 09/M01 A302 RMK A01 T00851011  RH  051%=      5-min Rain = 0
KHO1 170717Z 32009KT 09/M01 A302 RMK A01 T00851012  RH  051%=      5-min Rain = 0
KHO1 170718Z 32009KT 09/M01 A302 RMK A01 T00861012  RH  050%=      5-min Rain = 0
KHO1 170719Z 32009KT 09/M01 A302 RMK A01 T00861011  RH  050%=      5-min Rain = 0
KHO1 170720Z 32009KT 09/M01 A302 RMK A01 T00861011  RH  050%=      5-min Rain = 0
KHO1 170721Z 32009KT 09/M01 A302 RMK A01 T00861011  RH  050%=      5-min Rain = 0
KHO1 170722Z 32009KT 09/M01 A302 RMK A01 T00871012  RH  050%=      5-min Rain = 0
KHO1 170723Z 32009KT 09/M01 A302 RMK A01 T00871011  RH  050%=      5-min Rain = 0
KHO1 170724Z 32008KT 09/M01 A302 RMK A01 T00861011  RH  050%=      5-min Rain = 0
KHO1 170725Z 32008KT 09/M01 A302 RMK A01 T00851011  RH  051%=      5-min Rain = 0
KHO1 170726Z 32008KT 09/M01 A302 RMK A01 T00851011  RH  051%=      5-min Rain = 0
KHO1 170727Z 32008KT 08/M01 A302 RMK A01 T00841011  RH  051%=      5-min Rain = 0
KHO1 170728Z 32009KT 08/M01 A302 RMK A01 T00841011  RH  051%=      5-min Rain = 0
KHO1 170729Z 33008KT 08/M01 A302 RMK A01 T00841011  RH  051%=      5-min Rain = 0
KHO1 170730Z 32009KT 09/M01 A302 RMK A01 T00851011  RH  051%=      5-min Rain = 0
KHO1 170731Z 32009KT 09/M01 A3019 RMK A01 T00861012  RH  050%=      5-min Rain = 0
KHO1 170732Z 32009KT 09/M01 A3019 RMK A01 T00861011  RH  050%=      5-min Rain = 0
KHO1 170733Z 32008KT 09/M01 A3019 RMK A01 T00861011  RH  050%=      5-min Rain = 0
KHO1 170734Z 32009KT 09/M01 A3019 RMK A01 T00851011  RH  051%=      5-min Rain = 0
KHO1 170735Z 32008KT 09/M01 A3019 RMK A01 T00851011  RH  051%=      5-min Rain = 0
KHO1 170736Z 32007KT 09/M01 A3019 RMK A01 T00851011  RH  051%=      5-min Rain = 0
KHO1 170737Z 32007KT 08/M01 A3019 RMK A01 T00841011  RH  051%=      5-min Rain = 0
KHO1 170738Z 32008KT 08/M01 A3019 RMK A01 T00821011  RH  052%=      5-min Rain = 0
KHO1 170739Z 32007KT 08/M01 A302 RMK A01 T00821011  RH  052%=      5-min Rain = 0
KHO1 170740Z 32007KT 08/M01 A302 RMK A01 T00811010  RH  053%=      5-min Rain = 0
KHO1 170741Z 32007KT 08/M01 A302 RMK A01 T00801010  RH  053%=      5-min Rain = 0
KHO1 170742Z 31007KT 08/M01 A302 RMK A01 T00791010  RH  053%=      5-min Rain = 0
KHO1 170743Z 32007KT 08/M01 A302 RMK A01 T00771010  RH  054%=      5-min Rain = 0
KHO1 170744Z 32006KT 08/M01 A302 RMK A01 T00761010  RH  054%=      5-min Rain = 0
KHO1 170745Z 32007KT 08/M01 A302 RMK A01 T00751010  RH  055%=      5-min Rain = 0
KHO1 170746Z 32007KT 07/M01 A302 RMK A01 T00741010  RH  055%=      5-min Rain = 0
KHO1 170747Z 32007KT 07/M01 A302 RMK A01 T00731010  RH  055%=      5-min Rain = 0
KHO1 170748Z 32008KT 07/M01 A302 RMK A01 T00731010  RH  055%=      5-min Rain = 0
KHO1 170749Z 32008KT 07/M01 A302 RMK A01 T00741010  RH  055%=      5-min Rain = 0
KHO1 170750Z 32007KT 07/M01 A302 RMK A01 T00741010  RH  055%=      5-min Rain = 0
KHO1 170751Z 32008KT 07/M01 A302 RMK A01 T00741010  RH  055%=      5-min Rain = 0
KHO1 170752Z 32008KT 07/M01 A302 RMK A01 T00731010  RH  056%=      5-min Rain = 0
KHO1 170753Z 33008KT 07/M01 A302 RMK A01 T00731010  RH  056%=      5-min Rain = 0
KHO1 170754Z 32008KT 07/M01 A302 RMK A01 T00741010  RH  055%=      5-min Rain = 0
KHO1 170755Z 33009KT 08/M01 A302 RMK A01 T00751010  RH  055%=      5-min Rain = 0
KHO1 170756Z 32008KT 08/M01 A302 RMK A01 T00761010  RH  055%=      5-min Rain = 0
KHO1 170757Z 32007KT 08/M01 A302 RMK A01 T00761010  RH  054%=      5-min Rain = 0
KHO1 170758Z 32008KT 08/M01 A302 RMK A01 T00761010  RH  055%=      5-min Rain = 0
KHO1 170759Z 32006KT 08/M01 A302 RMK A01 T00761010  RH  055%=      5-min Rain = 0
KHO1 170800Z 32008KT 08/M01 A302 RMK A01 T00751010  RH  055%=      5-min Rain = 0
KHO1 170801Z 32008KT 08/M01 A302 RMK A01 T00761010  RH  055%=      5-min Rain = 0
KHO1 170802Z 32009KT 08/M01 A302 RMK A01 T00761010  RH  054%=      5-min Rain = 0
KHO1 170803Z 32009KT 08/M01 A302 RMK A01 T00771011  RH  054%=      5-min Rain = 0
KHO1 170804Z 32010KT 08/M01 A302 RMK A01 T00791011  RH  053%=      5-min Rain = 0
KHO1 170805Z 32010KT 08/M01 A302 RMK A01 T00801011  RH  053%=      5-min Rain = 0
KHO1 170806Z 32009KT 08/M01 A302 RMK A01 T00801011  RH  053%=      5-min Rain = 0
KHO1 170807Z 32009KT 08/M01 A302 RMK A01 T00791011  RH  053%=      5-min Rain = 0
KHO1 170808Z 32009KT 08/M01 A302 RMK A01 T00781011  RH  053%=      5-min Rain = 0
KHO1 170809Z 32009KT 08/M01 A302 RMK A01 T00781011  RH  053%=      5-min Rain = 0
KHO1 170810Z 32009KT 08/M01 A302 RMK A01 T00791011  RH  053%=      5-min Rain = 0
KHO1 170811Z 32009KT 08/M01 A302 RMK A01 T00791011  RH  053%=      5-min Rain = 0
KHO1 170812Z 32009KT 08/M01 A302 RMK A01 T00791012  RH  053%=      5-min Rain = 0
KHO1 170813Z 33010KT 08/M01 A302 RMK A01 T00801012  RH  052%=      5-min Rain = 0
KHO1 170814Z 33010KT 08/M01 A302 RMK A01 T00811012  RH  052%=      5-min Rain = 0
KHO1 170815Z 32010KT 08/M01 A302 RMK A01 T00811012  RH  052%=      5-min Rain = 0
KHO1 170816Z 32010KT 08/M01 A302 RMK A01 T00821012  RH  052%=      5-min Rain = 0
KHO1 170817Z 32010KT 08/M01 A302 RMK A01 T00831013  RH  051%=      5-min Rain = 0
KHO1 170818Z 32010KT 08/M01 A302 RMK A01 T00841013  RH  051%=      5-min Rain = 0
KHO1 170819Z 33009KT 08/M01 A302 RMK A01 T00841013  RH  051%=      5-min Rain = 0
KHO1 170820Z 32009KT 08/M01 A302 RMK A01 T00841013  RH  051%=      5-min Rain = 0
KHO1 170821Z 32009KT 08/M01 A302 RMK A01 T00831012  RH  051%=      5-min Rain = 0
KHO1 170822Z 32008KT 08/M01 A302 RMK A01 T00831013  RH  051%=      5-min Rain = 0
KHO1 170823Z 32009KT 08/M01 A302 RMK A01 T00821013  RH  051%=      5-min Rain = 0
KHO1 170824Z 32008KT 08/M01 A302 RMK A01 T00821013  RH  051%=      5-min Rain = 0
KHO1 170825Z 31008KT 08/M01 A302 RMK A01 T00811013  RH  052%=      5-min Rain = 0
KHO1 170826Z 31009KT 08/M01 A302 RMK A01 T00811013  RH  052%=      5-min Rain = 0
KHO1 170827Z 31010KT 08/M01 A302 RMK A01 T00801013  RH  052%=      5-min Rain = 0
KHO1 170828Z 31009KT 08/M01 A302 RMK A01 T00801013  RH  052%=      5-min Rain = 0
KHO1 170829Z 32008KT 08/M01 A302 RMK A01 T00791013  RH  052%=      5-min Rain = 0
KHO1 170830Z 31009KT 08/M01 A302 RMK A01 T00771013  RH  053%=      5-min Rain = 0
KHO1 170831Z 32009KT 08/M01 A302 RMK A01 T00761013  RH  053%=      5-min Rain = 0
KHO1 170832Z 32008KT 07/M01 A302 RMK A01 T00741013  RH  054%=      5-min Rain = 0
KHO1 170833Z 32008KT 07/M01 A302 RMK A01 T00731013  RH  055%=      5-min Rain = 0
KHO1 170834Z 32008KT 07/M01 A302 RMK A01 T00721013  RH  055%=      5-min Rain = 0
KHO1 170835Z 32007KT 07/M01 A302 RMK A01 T00711012  RH  055%=      5-min Rain = 0
KHO1 170836Z 31008KT 07/M01 A302 RMK A01 T00691013  RH  056%=      5-min Rain = 0
KHO1 170837Z 32008KT 07/M01 A302 RMK A01 T00681013  RH  056%=      5-min Rain = 0
KHO1 170838Z 32008KT 07/M01 A302 RMK A01 T00681013  RH  056%=      5-min Rain = 0
KHO1 170839Z 32009KT 07/M01 A302 RMK A01 T00671013  RH  057%=      5-min Rain = 0
KHO1 170840Z 31009KT 07/M01 A302 RMK A01 T00661013  RH  057%=      5-min Rain = 0
KHO1 170841Z 31009KT 07/M01 A302 RMK A01 T00651013  RH  057%=      5-min Rain = 0
KHO1 170842Z 31009KT 06/M01 A302 RMK A01 T00641013  RH  058%=      5-min Rain = 0
KHO1 170843Z 32009KT 06/M01 A302 RMK A01 T00641013  RH  058%=      5-min Rain = 0
KHO1 170844Z 32008KT 06/M01 A302 RMK A01 T00641013  RH  058%=      5-min Rain = 0
KHO1 170845Z 32008KT 06/M01 A3021 RMK A01 T00631013  RH  058%=      5-min Rain = 0
KHO1 170846Z 32008KT 06/M01 A3021 RMK A01 T00631013  RH  058%=      5-min Rain = 0
KHO1 170847Z 32008KT 06/M01 A3021 RMK A01 T00621013  RH  058%=      5-min Rain = 0
KHO1 170848Z 32007KT 06/M01 A3021 RMK A01 T00621013  RH  058%=      5-min Rain = 0
KHO1 170849Z 32008KT 06/M01 A3021 RMK A01 T00621013  RH  059%=      5-min Rain = 0
KHO1 170850Z 32008KT 06/M01 A3021 RMK A01 T00621013  RH  059%=      5-min Rain = 0
KHO1 170851Z 32009KT 06/M01 A3021 RMK A01 T00621013  RH  059%=      5-min Rain = 0
KHO1 170852Z 32008KT 06/M01 A3021 RMK A01 T00621013  RH  059%=      5-min Rain = 0
KHO1 170853Z 32008KT 06/M01 A3021 RMK A01 T00621013  RH  059%=      5-min Rain = 0
KHO1 170854Z 32008KT 06/M01 A3021 RMK A01 T00621013  RH  059%=      5-min Rain = 0
KHO1 170855Z 32008KT 06/M01 A3021 RMK A01 T00621012  RH  059%=      5-min Rain = 0
KHO1 170856Z 32008KT 06/M01 A3021 RMK A01 T00621012  RH  059%=      5-min Rain = 0
KHO1 170857Z 32008KT 06/M01 A3021 RMK A01 T00621012  RH  059%=      5-min Rain = 0
KHO1 170858Z 32008KT 06/M01 A3021 RMK A01 T00621012  RH  059%=      5-min Rain = 0
KHO1 170859Z 32009KT 06/M01 A3021 RMK A01 T00621013  RH  059%=      5-min Rain = 0
KHO1 170900Z 32009KT 06/M01 A3021 RMK A01 T00621013  RH  059%=      5-min Rain = 0
KHO1 170901Z 32008KT 06/M01 A3021 RMK A01 T00621013  RH  059%=      5-min Rain = 0
KHO1 170902Z 32008KT 06/M01 A3021 RMK A01 T00621013  RH  059%=      5-min Rain = 0
KHO1 170903Z 32008KT 06/M01 A3021 RMK A01 T00621013  RH  059%=      5-min Rain = 0
KHO1 170904Z 32009KT 06/M01 A3021 RMK A01 T00611013  RH  059%=      5-min Rain = 0
KHO1 170905Z 31009KT 06/M01 A3021 RMK A01 T00611013  RH  059%=      5-min Rain = 0
KHO1 170906Z 31009KT 06/M01 A3021 RMK A01 T00601013  RH  059%=      5-min Rain = 0
KHO1 170907Z 31009KT 06/M01 A3021 RMK A01 T00601013  RH  059%=      5-min Rain = 0
KHO1 170908Z 31008KT 06/M01 A3021 RMK A01 T00601013  RH  060%=      5-min Rain = 0
KHO1 170909Z 31008KT 06/M01 A3021 RMK A01 T00591013  RH  060%=      5-min Rain = 0
KHO1 170910Z 31008KT 06/M01 A3021 RMK A01 T00601013  RH  060%=      5-min Rain = 0
KHO1 170911Z 31007KT 06/M01 A3021 RMK A01 T00601013  RH  060%=      5-min Rain = 0
KHO1 170912Z 30007KT 06/M01 A3021 RMK A01 T00601013  RH  060%=      5-min Rain = 0
KHO1 170913Z 30008KT 06/M01 A3021 RMK A01 T00591013  RH  060%=      5-min Rain = 0
KHO1 170914Z 30007KT 06/M01 A3021 RMK A01 T00591013  RH  060%=      5-min Rain = 0
KHO1 170915Z 30008KT 06/M01 A3021 RMK A01 T00581013  RH  060%=      5-min Rain = 0
KHO1 170916Z 30008KT 06/M01 A3021 RMK A01 T00571013  RH  061%=      5-min Rain = 0
KHO1 170917Z 30007KT 06/M01 A3021 RMK A01 T00561013  RH  061%=      5-min Rain = 0
KHO1 170918Z 30007KT 06/M01 A3021 RMK A01 T00551013  RH  062%=      5-min Rain = 0
KHO1 170919Z 31007KT 05/M01 A3021 RMK A01 T00541013  RH  062%=      5-min Rain = 0
KHO1 170920Z 31008KT 05/M01 A3021 RMK A01 T00521013  RH  063%=      5-min Rain = 0
KHO1 170921Z 31007KT 05/M01 A3021 RMK A01 T00521013  RH  063%=      5-min Rain = 0
KHO1 170922Z 31007KT 05/M01 A3022 RMK A01 T00511012  RH  064%=      5-min Rain = 0
KHO1 170923Z 31007KT 05/M01 A3022 RMK A01 T00511012  RH  064%=      5-min Rain = 0
KHO1 170924Z 31007KT 05/M01 A3022 RMK A01 T00511012  RH  064%=      5-min Rain = 0
KHO1 170925Z 31007KT 05/M01 A3022 RMK A01 T00511012  RH  063%=      5-min Rain = 0
KHO1 170926Z 31007KT 05/M01 A3022 RMK A01 T00521013  RH  063%=      5-min Rain = 0
KHO1 170927Z 31008KT 05/M01 A3022 RMK A01 T00541013  RH  062%=      5-min Rain = 0
KHO1 170928Z 31008KT 06/M01 A3022 RMK A01 T00561013  RH  061%=      5-min Rain = 0
KHO1 170929Z 31009KT 06/M01 A3022 RMK A01 T00571013  RH  061%=      5-min Rain = 0
KHO1 170930Z 31008KT 06/M01 A3022 RMK A01 T00581013  RH  060%=      5-min Rain = 0
KHO1 170931Z 31007KT 06/M01 A3022 RMK A01 T00591013  RH  060%=      5-min Rain = 0
KHO1 170932Z 31007KT 06/M01 A3022 RMK A01 T00591013  RH  060%=      5-min Rain = 0
KHO1 170933Z 31006KT 06/M01 A3022 RMK A01 T00581013  RH  060%=      5-min Rain = 0
KHO1 170934Z 31007KT 06/M01 A3022 RMK A01 T00581013  RH  060%=      5-min Rain = 0
KHO1 170935Z 31007KT 06/M01 A3022 RMK A01 T00571013  RH  061%=      5-min Rain = 0
KHO1 170936Z 31008KT 06/M01 A3022 RMK A01 T00561013  RH  061%=      5-min Rain = 0
KHO1 170937Z 31007KT 06/M01 A3022 RMK A01 T00551013  RH  061%=      5-min Rain = 0
KHO1 170938Z 31007KT 06/M01 A3022 RMK A01 T00551013  RH  061%=      5-min Rain = 0
KHO1 170939Z 31007KT 06/M01 A3022 RMK A01 T00551013  RH  062%=      5-min Rain = 0
KHO1 170940Z 31007KT 05/M01 A3022 RMK A01 T00541013  RH  062%=      5-min Rain = 0
KHO1 170941Z 31007KT 05/M01 A3022 RMK A01 T00541013  RH  062%=      5-min Rain = 0
KHO1 170942Z 31007KT 05/M01 A3022 RMK A01 T00541013  RH  062%=      5-min Rain = 0
KHO1 170943Z 31006KT 05/M01 A3022 RMK A01 T00541013  RH  062%=      5-min Rain = 0
KHO1 170944Z 31007KT 05/M01 A3022 RMK A01 T00531013  RH  062%=      5-min Rain = 0
KHO1 170945Z 32007KT 05/M01 A3022 RMK A01 T00541013  RH  062%=      5-min Rain = 0
KHO1 170946Z 32008KT 05/M01 A3022 RMK A01 T00541013  RH  062%=      5-min Rain = 0
KHO1 170947Z 32007KT 05/M01 A3022 RMK A01 T00531013  RH  062%=      5-min Rain = 0
KHO1 170948Z 31007KT 05/M01 A3022 RMK A01 T00531013  RH  062%=      5-min Rain = 0
KHO1 170949Z 31007KT 05/M01 A3022 RMK A01 T00521014  RH  063%=      5-min Rain = 0
KHO1 170950Z 32006KT 05/M01 A3022 RMK A01 T00511014  RH  063%=      5-min Rain = 0
KHO1 170951Z 32007KT 05/M01 A3022 RMK A01 T00501014  RH  063%=      5-min Rain = 0
KHO1 170952Z 32006KT 05/M01 A3022 RMK A01 T00501014  RH  063%=      5-min Rain = 0
KHO1 170953Z 32006KT 05/M01 A3022 RMK A01 T00491014  RH  064%=      5-min Rain = 0
KHO1 170954Z 32006KT 05/M01 A3022 RMK A01 T00481014  RH  064%=      5-min Rain = 0
KHO1 170955Z 32006KT 05/M01 A3022 RMK A01 T00481014  RH  064%=      5-min Rain = 0
KHO1 170956Z 32006KT 05/M01 A3022 RMK A01 T00481014  RH  064%=      5-min Rain = 0
KHO1 170957Z 32006KT 05/M01 A3022 RMK A01 T00481014  RH  064%=      5-min Rain = 0
KHO1 170958Z 32007KT 05/M01 A3022 RMK A01 T00481014  RH  064%=      5-min Rain = 0
KHO1 170959Z 32006KT 05/M01 A3022 RMK A01 T00481014  RH  064%=      5-min Rain = 0
KHO1 171000Z 32006KT 05/M01 A3022 RMK A01 T00471014  RH  064%=      5-min Rain = 0
KHO1 171001Z 32006KT 05/M01 A3022 RMK A01 T00471014  RH  065%=      5-min Rain = 0
KHO1 171002Z 33006KT 05/M01 A3022 RMK A01 T00461014  RH  065%=      5-min Rain = 0
KHO1 171003Z 32006KT 05/M01 A3022 RMK A01 T00461014  RH  065%=      5-min Rain = 0
KHO1 171004Z 33005KT 05/M01 A3022 RMK A01 T00471014  RH  065%=      5-min Rain = 0
KHO1 171005Z 32006KT 05/M01 A3022 RMK A01 T00471014  RH  065%=      5-min Rain = 0
KHO1 171006Z 32006KT 05/M01 A3022 RMK A01 T00471014  RH  064%=      5-min Rain = 0
KHO1 171007Z 32006KT 05/M01 A3022 RMK A01 T00481014  RH  064%=      5-min Rain = 0
KHO1 171008Z 32006KT 05/M01 A3022 RMK A01 T00481014  RH  064%=      5-min Rain = 0
KHO1 171009Z 33006KT 05/M01 A3022 RMK A01 T00481014  RH  064%=      5-min Rain = 0
KHO1 171010Z 33007KT 05/M01 A3022 RMK A01 T00491013  RH  064%=      5-min Rain = 0
KHO1 171011Z 33007KT 05/M01 A3022 RMK A01 T00501013  RH  064%=      5-min Rain = 0
KHO1 171012Z 33007KT 05/M01 A3022 RMK A01 T00501013  RH  064%=      5-min Rain = 0
KHO1 171013Z 33008KT 05/M01 A3022 RMK A01 T00511013  RH  063%=      5-min Rain = 0
KHO1 171014Z 32008KT 05/M01 A3022 RMK A01 T00521013  RH  063%=      5-min Rain = 0
KHO1 171015Z 33007KT 05/M01 A3022 RMK A01 T00531013  RH  063%=      5-min Rain = 0
KHO1 171016Z 33007KT 05/M01 A3022 RMK A01 T00531013  RH  062%=      5-min Rain = 0
KHO1 171017Z 33008KT 05/M01 A3022 RMK A01 T00531013  RH  062%=      5-min Rain = 0
KHO1 171018Z 33007KT 05/M01 A3022 RMK A01 T00541013  RH  062%=      5-min Rain = 0
KHO1 171019Z 33007KT 05/M01 A3022 RMK A01 T00531013  RH  062%=      5-min Rain = 0
KHO1 171020Z 33007KT 05/M01 A3022 RMK A01 T00531013  RH  063%=      5-min Rain = 0
KHO1 171021Z 32007KT 05/M01 A3022 RMK A01 T00531013  RH  063%=      5-min Rain = 0
KHO1 171022Z 32008KT 05/M01 A3022 RMK A01 T00531013  RH  063%=      5-min Rain = 0
KHO1 171023Z 32008KT 05/M01 A3022 RMK A01 T00531013  RH  063%=      5-min Rain = 0
KHO1 171024Z 33009KT 05/M01 A3021 RMK A01 T00541013  RH  062%=      5-min Rain = 0
KHO1 171025Z 32009KT 06/M01 A3021 RMK A01 T00551013  RH  062%=      5-min Rain = 0
KHO1 171026Z 33008KT 06/M01 A3021 RMK A01 T00551013  RH  062%=      5-min Rain = 0
KHO1 171027Z 32009KT 06/M01 A3021 RMK A01 T00551013  RH  062%=      5-min Rain = 0
KHO1 171028Z 32009KT 06/M01 A3021 RMK A01 T00561013  RH  061%=      5-min Rain = 0
KHO1 171029Z 33010KT 06/M01 A3021 RMK A01 T00561013  RH  061%=      5-min Rain = 0
KHO1 171030Z 33009KT 06/M01 A3021 RMK A01 T00581013  RH  061%=      5-min Rain = 0
KHO1 171031Z 33008KT 06/M01 A3021 RMK A01 T00581013  RH  060%=      5-min Rain = 0
KHO1 171032Z 33009KT 06/M01 A3021 RMK A01 T00581013  RH  060%=      5-min Rain = 0
KHO1 171033Z 33008KT 06/M01 A3021 RMK A01 T00581013  RH  060%=      5-min Rain = 0
KHO1 171034Z 33008KT 06/M01 A3021 RMK A01 T00581013  RH  060%=      5-min Rain = 0
KHO1 171035Z 33008KT 06/M01 A3021 RMK A01 T00581013  RH  060%=      5-min Rain = 0
KHO1 171036Z 33008KT 06/M01 A3021 RMK A01 T00581013  RH  060%=      5-min Rain = 0
KHO1 171037Z 33009KT 06/M01 A3021 RMK A01 T00581013  RH  060%=      5-min Rain = 0
KHO1 171038Z 33009KT 06/M01 A3021 RMK A01 T00581013  RH  060%=      5-min Rain = 0
KHO1 171039Z 33009KT 06/M01 A3021 RMK A01 T00581013  RH  060%=      5-min Rain = 0
KHO1 171040Z 33008KT 06/M01 A3021 RMK A01 T00571013  RH  061%=      5-min Rain = 0
KHO1 171041Z 33006KT 06/M01 A3021 RMK A01 T00551013  RH  061%=      5-min Rain = 0
KHO1 171042Z 33006KT 05/M01 A3021 RMK A01 T00541013  RH  062%=      5-min Rain = 0
KHO1 171043Z 33007KT 05/M01 A3021 RMK A01 T00541013  RH  062%=      5-min Rain = 0
KHO1 171044Z 33008KT 05/M01 A3021 RMK A01 T00541013  RH  062%=      5-min Rain = 0
KHO1 171045Z 32009KT 06/M01 A3021 RMK A01 T00551013  RH  061%=      5-min Rain = 0
KHO1 171046Z 32008KT 06/M01 A3021 RMK A01 T00551013  RH  061%=      5-min Rain = 0
KHO1 171047Z 33008KT 06/M01 A3021 RMK A01 T00551013  RH  061%=      5-min Rain = 0
KHO1 171048Z 32007KT 06/M01 A3021 RMK A01 T00551013  RH  062%=      5-min Rain = 0
KHO1 171049Z 32008KT 05/M01 A3021 RMK A01 T00541013  RH  062%=      5-min Rain = 0
KHO1 171050Z 32008KT 05/M01 A3021 RMK A01 T00541013  RH  062%=      5-min Rain = 0
KHO1 171051Z 32008KT 05/M01 A3021 RMK A01 T00531013  RH  062%=      5-min Rain = 0
KHO1 171052Z 32009KT 05/M01 A3021 RMK A01 T00531013  RH  062%=      5-min Rain = 0
KHO1 171053Z 32009KT 05/M01 A3021 RMK A01 T00531013  RH  062%=      5-min Rain = 0
KHO1 171054Z 32009KT 05/M01 A3021 RMK A01 T00531013  RH  062%=      5-min Rain = 0
KHO1 171055Z 32008KT 05/M01 A3021 RMK A01 T00541013  RH  062%=      5-min Rain = 0
KHO1 171056Z 32009KT 05/M01 A3021 RMK A01 T00541014  RH  062%=      5-min Rain = 0
KHO1 171057Z 32009KT 05/M01 A3021 RMK A01 T00541014  RH  061%=      5-min Rain = 0
KHO1 171058Z 32009KT 06/M01 A3021 RMK A01 T00551014  RH  061%=      5-min Rain = 0
KHO1 171059Z 32010KT 06/M01 A3021 RMK A01 T00561014  RH  061%=      5-min Rain = 0
KHO1 171100Z 32009KT 06/M01 A3021 RMK A01 T00571014  RH  060%=      5-min Rain = 0
KHO1 171101Z 32010KT 06/M01 A3021 RMK A01 T00571014  RH  060%=      5-min Rain = 0
KHO1 171102Z 32009KT 06/M01 A3021 RMK A01 T00571014  RH  060%=      5-min Rain = 0
KHO1 171103Z 32009KT 06/M01 A3021 RMK A01 T00571014  RH  060%=      5-min Rain = 0
KHO1 171104Z 32009KT 06/M01 A3021 RMK A01 T00571014  RH  060%=      5-min Rain = 0
KHO1 171105Z 32009KT 06/M01 A3021 RMK A01 T00581014  RH  060%=      5-min Rain = 0
KHO1 171106Z 32009KT 06/M01 A3021 RMK A01 T00581014  RH  060%=      5-min Rain = 0
KHO1 171107Z 32009KT 06/M01 A3021 RMK A01 T00581014  RH  060%=      5-min Rain = 0
KHO1 171108Z 31008KT 06/M01 A3021 RMK A01 T00591014  RH  060%=      5-min Rain = 0
KHO1 171109Z 31009KT 06/M01 A3021 RMK A01 T00591014  RH  060%=      5-min Rain = 0
KHO1 171110Z 30008KT 06/M01 A3021 RMK A01 T00581014  RH  060%=      5-min Rain = 0
KHO1 171111Z 29008KT 06/M01 A3021 RMK A01 T00571014  RH  060%=      5-min Rain = 0
KHO1 171112Z 30009KT 06/M01 A3021 RMK A01 T00571014  RH  060%=      5-min Rain = 0
KHO1 171113Z 29008KT 06/M01 A302 RMK A01 T00561014  RH  061%=      5-min Rain = 0
KHO1 171114Z 29008KT 05/M01 A302 RMK A01 T00541014  RH  061%=      5-min Rain = 0
KHO1 171115Z 29007KT 05/M02 A302 RMK A01 T00521015  RH  062%=      5-min Rain = 0
KHO1 171116Z 29008KT 05/M02 A302 RMK A01 T00501015  RH  063%=      5-min Rain = 0
KHO1 171117Z 29007KT 05/M02 A302 RMK A01 T00491015  RH  063%=      5-min Rain = 0
KHO1 171118Z 30007KT 05/M02 A302 RMK A01 T00481015  RH  064%=      5-min Rain = 0
KHO1 171119Z 30006KT 05/M02 A302 RMK A01 T00471015  RH  064%=      5-min Rain = 0
KHO1 171120Z 31007KT 05/M02 A302 RMK A01 T00451015  RH  065%=      5-min Rain = 0
KHO1 171121Z 30007KT 04/M02 A302 RMK A01 T00441015  RH  066%=      5-min Rain = 0
KHO1 171122Z 30007KT 04/M02 A302 RMK A01 T00431015  RH  066%=      5-min Rain = 0
KHO1 171123Z 30007KT 04/M02 A302 RMK A01 T00421015  RH  067%=      5-min Rain = 0
KHO1 171124Z 30007KT 04/M02 A302 RMK A01 T00411015  RH  067%=      5-min Rain = 0
KHO1 171125Z 30007KT 04/M02 A302 RMK A01 T00421015  RH  067%=      5-min Rain = 0
KHO1 171126Z 30006KT 04/M01 A302 RMK A01 T00421014  RH  067%=      5-min Rain = 0
KHO1 171127Z 30007KT 04/M01 A302 RMK A01 T00421014  RH  067%=      5-min Rain = 0
KHO1 171128Z 29006KT 04/M02 A302 RMK A01 T00431015  RH  066%=      5-min Rain = 0
KHO1 171129Z 29006KT 04/M02 A302 RMK A01 T00421015  RH  066%=      5-min Rain = 0
KHO1 171130Z 29007KT 04/M02 A302 RMK A01 T00411015  RH  067%=      5-min Rain = 0
KHO1 171131Z 29007KT 04/M02 A302 RMK A01 T00411015  RH  067%=      5-min Rain = 0
KHO1 171132Z 30007KT 04/M02 A302 RMK A01 T00401015  RH  067%=      5-min Rain = 0
KHO1 171133Z 30007KT 04/M02 A302 RMK A01 T00401015  RH  067%=      5-min Rain = 0
KHO1 171134Z 30007KT 04/M02 A302 RMK A01 T00401015  RH  067%=      5-min Rain = 0
KHO1 171135Z 30007KT 04/M02 A302 RMK A01 T00411015  RH  067%=      5-min Rain = 0
KHO1 171136Z 30007KT 04/M02 A302 RMK A01 T00411015  RH  067%=      5-min Rain = 0
KHO1 171137Z 30008KT 04/M02 A302 RMK A01 T00421015  RH  067%=      5-min Rain = 0
KHO1 171138Z 31008KT 04/M01 A302 RMK A01 T00421014  RH  067%=      5-min Rain = 0
KHO1 171139Z 30008KT 04/M01 A302 RMK A01 T00431014  RH  066%=      5-min Rain = 0
KHO1 171140Z 30007KT 04/M01 A302 RMK A01 T00431014  RH  066%=      5-min Rain = 0
KHO1 171141Z 30008KT 04/M01 A302 RMK A01 T00441014  RH  066%=      5-min Rain = 0
KHO1 171142Z 30008KT 05/M01 A302 RMK A01 T00451014  RH  065%=      5-min Rain = 0
KHO1 171143Z 30008KT 05/M01 A302 RMK A01 T00451014  RH  065%=      5-min Rain = 0
KHO1 171144Z 30008KT 05/M01 A302 RMK A01 T00461014  RH  065%=      5-min Rain = 0
KHO1 171145Z 30008KT 05/M01 A302 RMK A01 T00461014  RH  065%=      5-min Rain = 0
KHO1 171146Z 30008KT 05/M01 A302 RMK A01 T00471014  RH  065%=      5-min Rain = 0
KHO1 171147Z 30007KT 05/M02 A302 RMK A01 T00471015  RH  065%=      5-min Rain = 0
KHO1 171148Z 31008KT 05/M02 A302 RMK A01 T00461015  RH  065%=      5-min Rain = 0
KHO1 171149Z 31008KT 05/M02 A302 RMK A01 T00461015  RH  065%=      5-min Rain = 0
KHO1 171150Z 31008KT 05/M02 A302 RMK A01 T00471015  RH  064%=      5-min Rain = 0
KHO1 171151Z 31008KT 05/M02 A302 RMK A01 T00471015  RH  064%=      5-min Rain = 0
KHO1 171152Z 31008KT 05/M02 A302 RMK A01 T00481015  RH  064%=      5-min Rain = 0
KHO1 171153Z 31007KT 05/M02 A302 RMK A01 T00481015  RH  064%=      5-min Rain = 0
KHO1 171154Z 31007KT 05/M02 A302 RMK A01 T00481015  RH  064%=      5-min Rain = 0
KHO1 171155Z 31007KT 05/M02 A302 RMK A01 T00481015  RH  064%=      5-min Rain = 0
KHO1 171156Z 31007KT 05/M02 A302 RMK A01 T00481015  RH  064%=      5-min Rain = 0
KHO1 171157Z 31008KT 05/M02 A302 RMK A01 T00481015  RH  064%=      5-min Rain = 0
KHO1 171158Z 30007KT 05/M02 A302 RMK A01 T00481015  RH  064%=      5-min Rain = 0
KHO1 171159Z 31008KT 05/M02 A302 RMK A01 T00491015  RH  063%=      5-min Rain = 0
KHO1 171200Z 30008KT 05/M02 A302 RMK A01 T00491015  RH  063%=      5-min Rain = 0
KHO1 171201Z 30008KT 05/M02 A302 RMK A01 T00491015  RH  063%=      5-min Rain = 0
KHO1 171202Z 30008KT 05/M02 A302 RMK A01 T00491015  RH  063%=      5-min Rain = 0
KHO1 171203Z 31009KT 05/M02 A302 RMK A01 T00491015  RH  063%=      5-min Rain = 0
KHO1 171204Z 30008KT 05/M02 A302 RMK A01 T00491015  RH  063%=      5-min Rain = 0
KHO1 171205Z 30009KT 05/M02 A302 RMK A01 T00501015  RH  063%=      5-min Rain = 0
KHO1 171206Z 30008KT 05/M02 A302 RMK A01 T00501015  RH  063%=      5-min Rain = 0
KHO1 171207Z 29008KT 05/M02 A302 RMK A01 T00501015  RH  063%=      5-min Rain = 0
KHO1 171208Z 29009KT 05/M02 A302 RMK A01 T00491015  RH  063%=      5-min Rain = 0
KHO1 171209Z 29009KT 05/M02 A302 RMK A01 T00481015  RH  064%=      5-min Rain = 0
KHO1 171210Z 30008KT 05/M02 A302 RMK A01 T00471015  RH  064%=      5-min Rain = 0
KHO1 171211Z 30008KT 05/M01 A302 RMK A01 T00481014  RH  064%=      5-min Rain = 0
KHO1 171212Z 30008KT 05/M01 A302 RMK A01 T00481014  RH  064%=      5-min Rain = 0
KHO1 171213Z 31008KT 05/M01 A302 RMK A01 T00481014  RH  064%=      5-min Rain = 0
KHO1 171214Z 30008KT 05/M01 A302 RMK A01 T00471014  RH  064%=      5-min Rain = 0
KHO1 171215Z 30008KT 05/M01 A302 RMK A01 T00471014  RH  065%=      5-min Rain = 0
KHO1 171216Z 31009KT 05/M01 A302 RMK A01 T00471014  RH  065%=      5-min Rain = 0
KHO1 171217Z 31008KT 05/M01 A302 RMK A01 T00471013  RH  065%=      5-min Rain = 0
KHO1 171218Z 31009KT 05/M01 A302 RMK A01 T00491013  RH  064%=      5-min Rain = 0
KHO1 171219Z 31010KT 05/M01 A302 RMK A01 T00511012  RH  064%=      5-min Rain = 0
KHO1 171220Z 31009KT 05/M01 A302 RMK A01 T00531012  RH  063%=      5-min Rain = 0
KHO1 171221Z 31010KT 06/M01 A302 RMK A01 T00551011  RH  062%=      5-min Rain = 0
KHO1 171222Z 31009KT 06/M01 A302 RMK A01 T00571011  RH  061%=      5-min Rain = 0
KHO1 171223Z 31009KT 06/M01 A302 RMK A01 T00581011  RH  061%=      5-min Rain = 0
KHO1 171224Z 31009KT 06/M01 A302 RMK A01 T00591011  RH  061%=      5-min Rain = 0
KHO1 171225Z 31009KT 06/M01 A302 RMK A01 T00591011  RH  061%=      5-min Rain = 0
KHO1 171226Z 31009KT 06/M01 A302 RMK A01 T00601011  RH  060%=      5-min Rain = 0
KHO1 171227Z 30009KT 06/M01 A302 RMK A01 T00611010  RH  060%=      5-min Rain = 0
KHO1 171228Z 30009KT 06/M01 A302 RMK A01 T00611010  RH  060%=      5-min Rain = 0
KHO1 171229Z 30010KT 06/M01 A302 RMK A01 T00621010  RH  060%=      5-min Rain = 0
KHO1 171230Z 30010KT 06/M01 A302 RMK A01 T00631010  RH  060%=      5-min Rain = 0
KHO1 171231Z 30009KT 06/M01 A302 RMK A01 T00621010  RH  060%=      5-min Rain = 0
KHO1 171232Z 30010KT 06/M01 A302 RMK A01 T00621010  RH  060%=      5-min Rain = 0
KHO1 171233Z 31010KT 06/M01 A302 RMK A01 T00621010  RH  060%=      5-min Rain = 0
KHO1 171234Z 31011KT 06/M01 A302 RMK A01 T00631010  RH  060%=      5-min Rain = 0
KHO1 171235Z 31010KT 07/M01 A302 RMK A01 T00651009  RH  059%=      5-min Rain = 0
KHO1 171236Z 31010KT 07/M01 A302 RMK A01 T00661009  RH  058%=      5-min Rain = 0
KHO1 171237Z 31010KT 07/M01 A302 RMK A01 T00671009  RH  058%=      5-min Rain = 0
KHO1 171238Z 31009KT 07/M01 A302 RMK A01 T00681009  RH  058%=      5-min Rain = 0
KHO1 171239Z 31010KT 07/M01 A302 RMK A01 T00681009  RH  058%=      5-min Rain = 0
KHO1 171240Z 31010KT 07/M01 A302 RMK A01 T00681009  RH  058%=      5-min Rain = 0
KHO1 171241Z 31009KT 07/M01 A302 RMK A01 T00681009  RH  058%=      5-min Rain = 0
KHO1 171242Z 31011KT 07/M01 A302 RMK A01 T00681009  RH  058%=      5-min Rain = 0
KHO1 171243Z 30010KT 07/M01 A302 RMK A01 T00681009  RH  058%=      5-min Rain = 0
KHO1 171244Z 30012KT 07/M01 A302 RMK A01 T00691009  RH  058%=      5-min Rain = 0
KHO1 171245Z 30011KT 07/M01 A302 RMK A01 T00711009  RH  057%=      5-min Rain = 0
KHO1 171246Z 30011KT 07/M01 A302 RMK A01 T00721009  RH  057%=      5-min Rain = 0
KHO1 171247Z 30011KT 07/M01 A302 RMK A01 T00711009  RH  057%=      5-min Rain = 0
KHO1 171248Z 30010KT 07/M01 A302 RMK A01 T00711009  RH  057%=      5-min Rain = 0
KHO1 171249Z 30010KT 07/M01 A302 RMK A01 T00701009  RH  057%=      5-min Rain = 0
KHO1 171250Z 31009KT 07/M01 A302 RMK A01 T00691009  RH  057%=      5-min Rain = 0
KHO1 171251Z 31010KT 07/M01 A302 RMK A01 T00701009  RH  057%=      5-min Rain = 0
KHO1 171252Z 31010KT 07/M01 A302 RMK A01 T00711009  RH  057%=      5-min Rain = 0
KHO1 171253Z 31010KT 07/M01 A302 RMK A01 T00701009  RH  057%=      5-min Rain = 0
KHO1 171254Z 31009KT 07/M01 A302 RMK A01 T00701009  RH  057%=      5-min Rain = 0
KHO1 171255Z 32009KT 07/M01 A302 RMK A01 T00701009  RH  057%=      5-min Rain = 0
KHO1 171256Z 31010KT 07/M01 A302 RMK A01 T00701009  RH  057%=      5-min Rain = 0
KHO1 171257Z 31009KT 07/M01 A302 RMK A01 T00701009  RH  057%=      5-min Rain = 0
KHO1 171258Z 31009KT 07/M01 A302 RMK A01 T00691009  RH  058%=      5-min Rain = 0
KHO1 171259Z 31009KT 07/M01 A302 RMK A01 T00691009  RH  058%=      5-min Rain = 0
KHO1 171300Z 31010KT 07/M01 A302 RMK A01 T00691009  RH  058%=      5-min Rain = 0
KHO1 171301Z 31009KT 07/M01 A302 RMK A01 T00691008  RH  058%=      5-min Rain = 0
KHO1 171302Z 32009KT 07/M01 A3021 RMK A01 T00691008  RH  058%=      5-min Rain = 0
KHO1 171303Z 32009KT 07/M01 A302 RMK A01 T00681008  RH  058%=      5-min Rain = 0
KHO1 171304Z 32010KT 07/M01 A3021 RMK A01 T00691008  RH  058%=      5-min Rain = 0
KHO1 171305Z 32008KT 07/M01 A302 RMK A01 T00691008  RH  058%=      5-min Rain = 0
KHO1 171306Z 32009KT 07/M01 A3021 RMK A01 T00691008  RH  058%=      5-min Rain = 0
KHO1 171307Z 32010KT 07/M01 A3021 RMK A01 T00681008  RH  058%=      5-min Rain = 0
KHO1 171308Z 32010KT 07/M01 A3021 RMK A01 T00681008  RH  058%=      5-min Rain = 0
KHO1 171309Z 32009KT 07/M01 A3021 RMK A01 T00681008  RH  058%=      5-min Rain = 0
KHO1 171310Z 32008KT 07/M01 A3021 RMK A01 T00681008  RH  058%=      5-min Rain = 0
KHO1 171311Z 32008KT 07/M01 A3021 RMK A01 T00671008  RH  059%=      5-min Rain = 0
KHO1 171312Z 32008KT 07/M01 A3021 RMK A01 T00661008  RH  059%=      5-min Rain = 0
KHO1 171313Z 31008KT 07/M01 A3021 RMK A01 T00651008  RH  059%=      5-min Rain = 0
KHO1 171314Z 31008KT 07/M01 A3021 RMK A01 T00651008  RH  059%=      5-min Rain = 0
KHO1 171315Z 32008KT 06/M01 A3021 RMK A01 T00641008  RH  060%=      5-min Rain = 0
KHO1 171316Z 32008KT 06/M01 A3021 RMK A01 T00641008  RH  060%=      5-min Rain = 0
KHO1 171317Z 31009KT 06/M01 A3021 RMK A01 T00641008  RH  060%=      5-min Rain = 0
KHO1 171318Z 31008KT 06/M01 A3021 RMK A01 T00641008  RH  060%=      5-min Rain = 0
KHO1 171319Z 31008KT 06/M01 A3021 RMK A01 T00641008  RH  060%=      5-min Rain = 0
KHO1 171320Z 32009KT 06/M01 A3021 RMK A01 T00641008  RH  060%=      5-min Rain = 0
KHO1 171321Z 31009KT 07/M01 A3021 RMK A01 T00651008  RH  060%=      5-min Rain = 0
KHO1 171322Z 31009KT 07/M01 A3021 RMK A01 T00651008  RH  059%=      5-min Rain = 0
KHO1 171323Z 32009KT 07/M01 A3021 RMK A01 T00661008  RH  059%=      5-min Rain = 0
KHO1 171324Z 32010KT 07/M01 A3021 RMK A01 T00661008  RH  059%=      5-min Rain = 0
KHO1 171325Z 32009KT 07/M01 A3021 RMK A01 T00671008  RH  059%=      5-min Rain = 0
KHO1 171326Z 32009KT 07/M01 A3021 RMK A01 T00671008  RH  059%=      5-min Rain = 0
KHO1 171327Z 32009KT 07/M01 A3021 RMK A01 T00681008  RH  059%=      5-min Rain = 0
KHO1 171328Z 32009KT 07/M01 A3021 RMK A01 T00681008  RH  058%=      5-min Rain = 0
KHO1 171329Z 32009KT 07/M01 A3021 RMK A01 T00681008  RH  058%=      5-min Rain = 0
KHO1 171330Z 32009KT 07/M01 A3021 RMK A01 T00691008  RH  058%=      5-min Rain = 0
KHO1 171331Z 32009KT 07/M01 A3021 RMK A01 T00691008  RH  058%=      5-min Rain = 0
KHO1 171332Z 32009KT 07/M01 A3021 RMK A01 T00691008  RH  058%=      5-min Rain = 0
KHO1 171333Z 32008KT 07/M01 A302 RMK A01 T00701008  RH  058%=      5-min Rain = 0
KHO1 171334Z 32009KT 07/M01 A3021 RMK A01 T00691008  RH  058%=      5-min Rain = 0
KHO1 171335Z 32009KT 07/M01 A302 RMK A01 T00691008  RH  058%=      5-min Rain = 0
KHO1 171336Z 31009KT 07/M01 A302 RMK A01 T00701008  RH  058%=      5-min Rain = 0
KHO1 171337Z 32009KT 07/M01 A302 RMK A01 T00701008  RH  058%=      5-min Rain = 0
KHO1 171338Z 31010KT 07/M01 A302 RMK A01 T00691008  RH  058%=      5-min Rain = 0
KHO1 171339Z 31009KT 07/M01 A302 RMK A01 T00691008  RH  058%=      5-min Rain = 0
KHO1 171340Z 31009KT 07/M01 A302 RMK A01 T00701008  RH  058%=      5-min Rain = 0
KHO1 171341Z 32009KT 07/M01 A302 RMK A01 T00691008  RH  058%=      5-min Rain = 0
KHO1 171342Z 31009KT 07/M01 A3021 RMK A01 T00691008  RH  058%=      5-min Rain = 0
KHO1 171343Z 31009KT 07/M01 A302 RMK A01 T00691008  RH  058%=      5-min Rain = 0
KHO1 171344Z 32008KT 07/M01 A302 RMK A01 T00701008  RH  058%=      5-min Rain = 0
KHO1 171345Z 32009KT 07/M01 A3021 RMK A01 T00701008  RH  058%=      5-min Rain = 0
KHO1 171346Z 32009KT 07/M01 A3021 RMK A01 T00701008  RH  058%=      5-min Rain = 0
KHO1 171347Z 32009KT 07/M01 A3021 RMK A01 T00711008  RH  057%=      5-min Rain = 0
KHO1 171348Z 32009KT 07/M01 A3021 RMK A01 T00721008  RH  057%=      5-min Rain = 0
KHO1 171349Z 33010KT 07/M01 A3021 RMK A01 T00731007  RH  057%=      5-min Rain = 0
KHO1 171350Z 33010KT 07/M01 A3021 RMK A01 T00741007  RH  056%=      5-min Rain = 0
KHO1 171351Z 32010KT 08/M01 A3021 RMK A01 T00751007  RH  056%=      5-min Rain = 0
KHO1 171352Z 32009KT 08/M01 A3021 RMK A01 T00761007  RH  056%=      5-min Rain = 0
KHO1 171353Z 32009KT 08/M01 A3021 RMK A01 T00751007  RH  056%=      5-min Rain = 0
KHO1 171354Z 31009KT 08/M01 A3021 RMK A01 T00751007  RH  056%=      5-min Rain = 0
KHO1 171355Z 32009KT 07/M01 A3021 RMK A01 T00741007  RH  056%=      5-min Rain = 0
KHO1 171356Z 31009KT 07/M01 A3021 RMK A01 T00741007  RH  056%=      5-min Rain = 0
KHO1 171357Z 31008KT 07/M01 A3021 RMK A01 T00731007  RH  057%=      5-min Rain = 0
KHO1 171358Z 32009KT 07/M01 A3021 RMK A01 T00721007  RH  057%=      5-min Rain = 0
KHO1 171359Z 32009KT 07/M01 A3021 RMK A01 T00721007  RH  057%=      5-min Rain = 0
KHO1 171400Z 32008KT 07/M01 A3021 RMK A01 T00721007  RH  057%=      5-min Rain = 0
KHO1 171401Z 32009KT 07/M01 A3021 RMK A01 T00721007  RH  057%=      5-min Rain = 0
KHO1 171402Z 33008KT 07/M01 A3022 RMK A01 T00721007  RH  057%=      5-min Rain = 0
KHO1 171403Z 33008KT 07/M01 A3022 RMK A01 T00731007  RH  057%=      5-min Rain = 0
KHO1 171404Z 33007KT 07/M01 A3022 RMK A01 T00721007  RH  057%=      5-min Rain = 0
KHO1 171405Z 33007KT 07/M01 A3022 RMK A01 T00711007  RH  057%=      5-min Rain = 0
KHO1 171406Z 33007KT 07/M01 A3022 RMK A01 T00701007  RH  058%=      5-min Rain = 0
KHO1 171407Z 34006KT 07/M01 A3022 RMK A01 T00691008  RH  058%=      5-min Rain = 0
KHO1 171408Z 34005KT 07/M01 A3022 RMK A01 T00691008  RH  058%=      5-min Rain = 0
KHO1 171409Z 35006KT 07/M01 A3023 RMK A01 T00671008  RH  059%=      5-min Rain = 0
KHO1 171410Z 35007KT 07/M01 A3023 RMK A01 T00661008  RH  059%=      5-min Rain = 0
KHO1 171411Z 35007KT 07/M01 A3023 RMK A01 T00661007  RH  060%=      5-min Rain = 0
KHO1 171412Z 36008KT 07/M01 A3023 RMK A01 T00651007  RH  060%=      5-min Rain = 0
KHO1 171413Z 00007KT 07/M01 A3023 RMK A01 T00651006  RH  060%=      5-min Rain = 0
KHO1 171414Z 01007KT 07/M01 A3023 RMK A01 T00651006  RH  060%=      5-min Rain = 0
KHO1 171415Z 01008KT 06/M01 A3023 RMK A01 T00641006  RH  060%=      5-min Rain = 0
KHO1 171416Z 36007KT 06/M01 A3023 RMK A01 T00631007  RH  061%=      5-min Rain = 0
KHO1 171417Z 36007KT 06/M01 A3023 RMK A01 T00631007  RH  061%=      5-min Rain = 0
KHO1 171418Z 00006KT 06/M01 A3023 RMK A01 T00631007  RH  061%=      5-min Rain = 0
KHO1 171419Z 01006KT 06/M01 A3023 RMK A01 T00631006  RH  061%=      5-min Rain = 0
KHO1 171420Z 01007KT 06/M01 A3023 RMK A01 T00631006  RH  061%=      5-min Rain = 0
KHO1 171421Z 01007KT 06/M01 A3023 RMK A01 T00631007  RH  061%=      5-min Rain = 0
KHO1 171422Z 01008KT 06/M01 A3023 RMK A01 T00631007  RH  061%=      5-min Rain = 0
KHO1 171423Z 02007KT 06/M01 A3023 RMK A01 T00631006  RH  061%=      5-min Rain = 0
KHO1 171424Z 01005KT 06/M01 A3023 RMK A01 T00641006  RH  061%=      5-min Rain = 0
KHO1 171425Z 01006KT 06/M01 A3023 RMK A01 T00641006  RH  061%=      5-min Rain = 0
KHO1 171426Z 00006KT 06/M01 A3023 RMK A01 T00641006  RH  061%=      5-min Rain = 0
KHO1 171427Z 00005KT 06/M01 A3023 RMK A01 T00641006  RH  061%=      5-min Rain = 0
KHO1 171428Z 00006KT 06/M01 A3023 RMK A01 T00641006  RH  061%=      5-min Rain = 0
KHO1 171429Z 36006KT 06/M01 A3023 RMK A01 T00631006  RH  061%=      5-min Rain = 0
KHO1 171430Z 00006KT 06/M01 A3023 RMK A01 T00631006  RH  061%=      5-min Rain = 0
KHO1 171431Z 02007KT 06/M01 A3023 RMK A01 T00621006  RH  062%=      5-min Rain = 0
KHO1 171432Z 03008KT 06/M01 A3023 RMK A01 T00611006  RH  062%=      5-min Rain = 0
KHO1 171433Z 03008KT 06/M01 A3024 RMK A01 T00601007  RH  062%=      5-min Rain = 0
KHO1 171434Z 04007KT 06/M01 A3024 RMK A01 T00591007  RH  063%=      5-min Rain = 0
KHO1 171435Z 04007KT 06/M01 A3024 RMK A01 T00581007  RH  063%=      5-min Rain = 0
KHO1 171436Z 04007KT 06/M01 A3024 RMK A01 T00571007  RH  063%=      5-min Rain = 0
KHO1 171437Z 04006KT 06/M01 A3024 RMK A01 T00561007  RH  064%=      5-min Rain = 0
KHO1 171438Z 04005KT 06/M01 A3024 RMK A01 T00561006  RH  064%=      5-min Rain = 0
KHO1 171439Z 04004KT 06/M01 A3024 RMK A01 T00571005  RH  064%=      5-min Rain = 0
KHO1 171440Z 04004KT 06/M01 A3024 RMK A01 T00581005  RH  064%=      5-min Rain = 0
KHO1 171441Z 04004KT 06/M00 A3024 RMK A01 T00591004  RH  064%=      5-min Rain = 0
KHO1 171442Z 04004KT 06/M00 A3024 RMK A01 T00601004  RH  064%=      5-min Rain = 0
KHO1 171443Z 04004KT 06/M00 A3024 RMK A01 T00621004  RH  063%=      5-min Rain = 0
KHO1 171444Z 04004KT 06/M00 A3024 RMK A01 T00631003  RH  063%=      5-min Rain = 0
KHO1 171445Z 04005KT 06/M00 A3024 RMK A01 T00641003  RH  062%=      5-min Rain = 0
KHO1 171446Z 04004KT 07/M00 A3024 RMK A01 T00661002  RH  062%=      5-min Rain = 0
KHO1 171447Z 05004KT 07/M00 A3024 RMK A01 T00661003  RH  061%=      5-min Rain = 0
KHO1 171448Z 05003KT 07/M00 A3025 RMK A01 T00671003  RH  061%=      5-min Rain = 0
KHO1 171449Z 04004KT 07/M00 A3025 RMK A01 T00681003  RH  061%=      5-min Rain = 0
KHO1 171450Z 05004KT 07/M00 A3025 RMK A01 T00681003  RH  061%=      5-min Rain = 0
KHO1 171451Z 04003KT 07/M00 A3025 RMK A01 T00691001  RH  061%=      5-min Rain = 0
KHO1 171452Z 03003KT 07/M00 A3025 RMK A01 T00701002  RH  060%=      5-min Rain = 0
KHO1 171453Z 01003KT 07/M00 A3025 RMK A01 T00701003  RH  060%=      5-min Rain = 0
KHO1 171454Z 36002KT 07/M00 A3025 RMK A01 T00701004  RH  060%=      5-min Rain = 0
KHO1 171455Z 34003KT 07/M00 A3025 RMK A01 T00701003  RH  060%=      5-min Rain = 0
KHO1 171456Z 33003KT 07/M00 A3025 RMK A01 T00701002  RH  060%=      5-min Rain = 0
KHO1 171457Z 32003KT 07/M00 A3025 RMK A01 T00701001  RH  061%=      5-min Rain = 0
KHO1 171458Z 32004KT 07/M00 A3025 RMK A01 T00711002  RH  060%=      5-min Rain = 0
KHO1 171459Z 32004KT 07/M00 A3025 RMK A01 T00711002  RH  060%=      5-min Rain = 0
KHO1 171500Z 32004KT 07/M00 A3025 RMK A01 T00711002  RH  060%=      5-min Rain = 0
KHO1 171501Z 32005KT 07/00 A3025 RMK A01 T00710001  RH  061%=      5-min Rain = 0
KHO1 171502Z 32005KT 07/00 A3025 RMK A01 T007200-0  RH  060%=      5-min Rain = 0
KHO1 171503Z 31005KT 07/00 A3025 RMK A01 T007300-0  RH  060%=      5-min Rain = 0
KHO1 171504Z 31005KT 07/00 A3025 RMK A01 T007400-0  RH  059%=      5-min Rain = 0
KHO1 171505Z 31005KT 08/00 A3025 RMK A01 T00760001  RH  059%=      5-min Rain = 0
KHO1 171506Z 32006KT 08/00 A3025 RMK A01 T00770001  RH  059%=      5-min Rain = 0
KHO1 171507Z 32005KT 08/00 A3025 RMK A01 T00780001  RH  058%=      5-min Rain = 0
KHO1 171508Z 33005KT 08/00 A3025 RMK A01 T00790002  RH  058%=      5-min Rain = 0
KHO1 171509Z 33005KT 08/00 A3025 RMK A01 T00800002  RH  058%=      5-min Rain = 0
KHO1 171510Z 33004KT 08/00 A3026 RMK A01 T00810002  RH  058%=      5-min Rain = 0
KHO1 171511Z 34003KT 08/00 A3026 RMK A01 T00820004  RH  058%=      5-min Rain = 0
KHO1 171512Z 34005KT 08/00 A3026 RMK A01 T00830003  RH  057%=      5-min Rain = 0
KHO1 171513Z 34004KT 08/00 A3026 RMK A01 T00840004  RH  057%=      5-min Rain = 0
KHO1 171514Z 35004KT 08/00 A3026 RMK A01 T00840004  RH  057%=      5-min Rain = 0
KHO1 171515Z 34004KT 09/00 A3026 RMK A01 T00850002  RH  056%=      5-min Rain = 0
KHO1 171516Z 35003KT 09/00 A3026 RMK A01 T00850003  RH  056%=      5-min Rain = 0
KHO1 171517Z 35005KT 09/00 A3026 RMK A01 T00860001  RH  055%=      5-min Rain = 0
KHO1 171518Z 35004KT 09/00 A3026 RMK A01 T00870002  RH  055%=      5-min Rain = 0
KHO1 171519Z 00003KT 09/00 A3026 RMK A01 T00880003  RH  055%=      5-min Rain = 0
KHO1 171520Z 36003KT 09/00 A3026 RMK A01 T00880003  RH  055%=      5-min Rain = 0
KHO1 171521Z 00004KT 09/00 A3026 RMK A01 T00890003  RH  055%=      5-min Rain = 0
KHO1 171522Z 00003KT 09/00 A3026 RMK A01 T00900001  RH  054%=      5-min Rain = 0
KHO1 171523Z 35003KT 09/00 A3026 RMK A01 T00900002  RH  054%=      5-min Rain = 0
KHO1 171524Z 01003KT 09/00 A3026 RMK A01 T00910001  RH  054%=      5-min Rain = 0
KHO1 171525Z 02002KT 09/00 A3026 RMK A01 T00910002  RH  053%=      5-min Rain = 0
KHO1 171526Z 01003KT 09/00 A3027 RMK A01 T00920002  RH  053%=      5-min Rain = 0
KHO1 171527Z 01004KT 09/00 A3027 RMK A01 T00920001  RH  053%=      5-min Rain = 0
KHO1 171528Z 01005KT 09/00 A3027 RMK A01 T00920002  RH  053%=      5-min Rain = 0
KHO1 171529Z 03006KT 09/00 A3027 RMK A01 T00920001  RH  053%=      5-min Rain = 0
KHO1 171530Z 02005KT 09/00 A3027 RMK A01 T00930003  RH  053%=      5-min Rain = 0
KHO1 171531Z 02003KT 09/01 A3027 RMK A01 T00940005  RH  054%=      5-min Rain = 0
KHO1 171532Z 03005KT 10/00 A3027 RMK A01 T00960004  RH  053%=      5-min Rain = 0
KHO1 171533Z 03003KT 10/00 A3026 RMK A01 T00950004  RH  053%=      5-min Rain = 0
KHO1 171534Z 02004KT 10/00 A3026 RMK A01 T00950004  RH  053%=      5-min Rain = 0
KHO1 171535Z 01003KT 09/00 A3026 RMK A01 T00940004  RH  054%=      5-min Rain = 0
KHO1 171536Z 02004KT 09/00 A3026 RMK A01 T00930002  RH  053%=      5-min Rain = 0
KHO1 171537Z 01004KT 09/00 A3026 RMK A01 T00920004  RH  054%=      5-min Rain = 0
KHO1 171538Z 02006KT 09/00 A3026 RMK A01 T00920003  RH  054%=      5-min Rain = 0
KHO1 171539Z 02005KT 09/00 A3026 RMK A01 T00920003  RH  054%=      5-min Rain = 0
KHO1 171540Z 02006KT 09/00 A3026 RMK A01 T00920002  RH  053%=      5-min Rain = 0
KHO1 171541Z 01006KT 09/00 A3026 RMK A01 T00920003  RH  054%=      5-min Rain = 0
KHO1 171542Z 36005KT 09/00 A3026 RMK A01 T00920002  RH  053%=      5-min Rain = 0
KHO1 171543Z 35005KT 09/00 A3026 RMK A01 T00920001  RH  053%=      5-min Rain = 0
KHO1 171544Z 34006KT 09/00 A3026 RMK A01 T00920003  RH  054%=      5-min Rain = 0
KHO1 171545Z 35005KT 09/00 A3026 RMK A01 T00940002  RH  053%=      5-min Rain = 0
KHO1 171546Z 35006KT 10/00 A3026 RMK A01 T00950002  RH  052%=      5-min Rain = 0
KHO1 171547Z 00006KT 10/00 A3026 RMK A01 T00950001  RH  052%=      5-min Rain = 0
KHO1 171548Z 01007KT 10/00 A3026 RMK A01 T00950002  RH  052%=      5-min Rain = 0
KHO1 171549Z 00007KT 10/00 A3026 RMK A01 T00960001  RH  052%=      5-min Rain = 0
KHO1 171550Z 36005KT 10/00 A3026 RMK A01 T00950002  RH  052%=      5-min Rain = 0
KHO1 171551Z 34006KT 10/00 A3026 RMK A01 T00950001  RH  052%=      5-min Rain = 0
KHO1 171552Z 34006KT 10/00 A3026 RMK A01 T00950001  RH  052%=      5-min Rain = 0
KHO1 171553Z 34005KT 10/00 A3026 RMK A01 T00960001  RH  051%=      5-min Rain = 0
KHO1 171554Z 34005KT 10/00 A3026 RMK A01 T00970002  RH  052%=      5-min Rain = 0
KHO1 171555Z 35006KT 10/00 A3026 RMK A01 T00970001  RH  051%=      5-min Rain = 0
KHO1 171556Z 36007KT 10/00 A3026 RMK A01 T00970000  RH  051%=      5-min Rain = 0
KHO1 171557Z 00006KT 10/00 A3026 RMK A01 T00970001  RH  051%=      5-min Rain = 0
KHO1 171558Z 01006KT 10/00 A3026 RMK A01 T00970002  RH  052%=      5-min Rain = 0
KHO1 171559Z 00005KT 10/00 A3026 RMK A01 T00980003  RH  052%=      5-min Rain = 0
KHO1 171600Z 36004KT 10/01 A3025 RMK A01 T01000005  RH  052%=      5-min Rain = 0
KHO1 171601Z 36005KT 10/00 A3025 RMK A01 T01010003  RH  051%=      5-min Rain = 0
KHO1 171602Z 35005KT 10/00 A3025 RMK A01 T01010004  RH  051%=      5-min Rain = 0
KHO1 171603Z 35004KT 10/01 A3026 RMK A01 T01020005  RH  051%=      5-min Rain = 0
KHO1 171604Z 00004KT 10/00 A3026 RMK A01 T01030004  RH  050%=      5-min Rain = 0
KHO1 171605Z 35004KT 10/01 A3026 RMK A01 T01040005  RH  050%=      5-min Rain = 0
KHO1 171606Z 35006KT 10/00 A3026 RMK A01 T01040003  RH  050%=      5-min Rain = 0
KHO1 171607Z 35005KT 11/00 A3026 RMK A01 T01050004  RH  049%=      5-min Rain = 0
KHO1 171608Z 00006KT 11/00 A3026 RMK A01 T01060004  RH  049%=      5-min Rain = 0
KHO1 171609Z 00005KT 11/00 A3026 RMK A01 T01070003  RH  049%=      5-min Rain = 0
KHO1 171610Z 01005KT 11/01 A3026 RMK A01 T01080005  RH  049%=      5-min Rain = 0
KHO1 171611Z 01006KT 11/00 A3026 RMK A01 T01100004  RH  048%=      5-min Rain = 0
KHO1 171612Z 01005KT 11/01 A3026 RMK A01 T01110005  RH  048%=      5-min Rain = 0
KHO1 171613Z 00005KT 11/00 A3026 RMK A01 T01130002  RH  046%=      5-min Rain = 0
KHO1 171614Z 35004KT 11/00 A3026 RMK A01 T01140003  RH  046%=      5-min Rain = 0
KHO1 171615Z 34004KT 12/01 A3026 RMK A01 T01150005  RH  046%=      5-min Rain = 0
KHO1 171616Z 36006KT 12/00 A3026 RMK A01 T01170003  RH  046%=      5-min Rain = 0
KHO1 171617Z 01006KT 12/01 A3026 RMK A01 T01180005  RH  046%=      5-min Rain = 0
KHO1 171618Z 01006KT 12/01 A3026 RMK A01 T01190005  RH  045%=      5-min Rain = 0
KHO1 171619Z 01006KT 12/00 A3026 RMK A01 T01210004  RH  044%=      5-min Rain = 0
KHO1 171620Z 00005KT 12/00 A3026 RMK A01 T01220002  RH  044%=      5-min Rain = 0
KHO1 171621Z 35005KT 12/00 A3026 RMK A01 T01220002  RH  044%=      5-min Rain = 0
KHO1 171622Z 36005KT 12/00 A3026 RMK A01 T01230003  RH  044%=      5-min Rain = 0
KHO1 171623Z 01006KT 12/00 A3026 RMK A01 T01240002  RH  043%=      5-min Rain = 0
KHO1 171624Z 36006KT 13/00 A3026 RMK A01 T01260001  RH  042%=      5-min Rain = 0
KHO1 171625Z 00007KT 13/M00 A3026 RMK A01 T01261001  RH  042%=      5-min Rain = 0
KHO1 171626Z 01008KT 13/M00 A3026 RMK A01 T01271003  RH  041%=      5-min Rain = 0
KHO1 171627Z 00006KT 13/M00 A3026 RMK A01 T01281002  RH  041%=      5-min Rain = 0
KHO1 171628Z 00007KT 13/M00 A3026 RMK A01 T01291003  RH  040%=      5-min Rain = 0
KHO1 171629Z 35005KT 13/M00 A3026 RMK A01 T01301003  RH  040%=      5-min Rain = 0
KHO1 171630Z 35005KT 13/M00 A3026 RMK A01 T01321002  RH  040%=      5-min Rain = 0
KHO1 171631Z 00007KT 13/M00 A3026 RMK A01 T01331002  RH  039%=      5-min Rain = 0
KHO1 171632Z 35007KT 13/M01 A3026 RMK A01 T01331005  RH  039%=      5-min Rain = 0
KHO1 171633Z 35007KT 13/M01 A3026 RMK A01 T01331005  RH  039%=      5-min Rain = 0
KHO1 171634Z 35008KT 13/M01 A3026 RMK A01 T01321005  RH  039%=      5-min Rain = 0
KHO1 171635Z 36008KT 13/M01 A3026 RMK A01 T01321006  RH  039%=      5-min Rain = 0
KHO1 171636Z 35008KT 13/M01 A3026 RMK A01 T01321005  RH  039%=      5-min Rain = 0
KHO1 171637Z 35008KT 13/M01 A3026 RMK A01 T01331007  RH  038%=      5-min Rain = 0
KHO1 171638Z 36007KT 13/M01 A3026 RMK A01 T01331005  RH  039%=      5-min Rain = 0
KHO1 171639Z 35006KT 13/M00 A3026 RMK A01 T01341001  RH  039%=      5-min Rain = 0
KHO1 171640Z 35006KT 14/M00 A3026 RMK A01 T01361004  RH  038%=      5-min Rain = 0
KHO1 171641Z 35007KT 14/M01 A3026 RMK A01 T01361007  RH  037%=      5-min Rain = 0
KHO1 171642Z 36008KT 14/M01 A3026 RMK A01 T01351008  RH  037%=      5-min Rain = 0
KHO1 171643Z 35007KT 14/M01 A3026 RMK A01 T01351006  RH  038%=      5-min Rain = 0
KHO1 171644Z 35008KT 14/M01 A3026 RMK A01 T01361008  RH  037%=      5-min Rain = 0
KHO1 171645Z 36008KT 14/M01 A3026 RMK A01 T01361010  RH  037%=      5-min Rain = 0
KHO1 171646Z 35008KT 14/M01 A3026 RMK A01 T01361010  RH  037%=      5-min Rain = 0
KHO1 171647Z 35007KT 14/M01 A3026 RMK A01 T01361008  RH  037%=      5-min Rain = 0
KHO1 171648Z 35008KT 14/M01 A3026 RMK A01 T01381009  RH  036%=      5-min Rain = 0
KHO1 171649Z 35007KT 14/M01 A3026 RMK A01 T01391009  RH  036%=      5-min Rain = 0
KHO1 171650Z 00006KT 14/M01 A3026 RMK A01 T01391009  RH  036%=      5-min Rain = 0
KHO1 171651Z 35006KT 14/M01 A3026 RMK A01 T01391009  RH  036%=      5-min Rain = 0
KHO1 171652Z 00007KT 14/M01 A3026 RMK A01 T01391007  RH  036%=      5-min Rain = 0
KHO1 171653Z 35007KT 14/M01 A3026 RMK A01 T01391007  RH  037%=      5-min Rain = 0
KHO1 171654Z 36007KT 14/M01 A3026 RMK A01 T01401008  RH  036%=      5-min Rain = 0
KHO1 171655Z 00008KT 14/M01 A3026 RMK A01 T01401011  RH  035%=      5-min Rain = 0
KHO1 171656Z 35007KT 14/M01 A3026 RMK A01 T01401009  RH  036%=      5-min Rain = 0
KHO1 171657Z 35006KT 14/M01 A3026 RMK A01 T01401006  RH  037%=      5-min Rain = 0
KHO1 171658Z 35007KT 14/M01 A3026 RMK A01 T01401011  RH  035%=      5-min Rain = 0
KHO1 171659Z 35007KT 14/M01 A3026 RMK A01 T01391008  RH  036%=      5-min Rain = 0
KHO1 171700Z 34008KT 14/M01 A3026 RMK A01 T01411008  RH  036%=      5-min Rain = 0
KHO1 171701Z 34007KT 14/M01 A3026 RMK A01 T01431008  RH  035%=      5-min Rain = 0
KHO1 171702Z 35006KT 14/M01 A3026 RMK A01 T01441007  RH  035%=      5-min Rain = 0
KHO1 171703Z 36006KT 14/M01 A3026 RMK A01 T01441010  RH  035%=      5-min Rain = 0
KHO1 171704Z 00006KT 14/M01 A3026 RMK A01 T01441005  RH  036%=      5-min Rain = 0
KHO1 171705Z 01007KT 14/M01 A3026 RMK A01 T01441006  RH  036%=      5-min Rain = 0
KHO1 171706Z 35007KT 14/M01 A3026 RMK A01 T01441007  RH  035%=      5-min Rain = 0
KHO1 171707Z 35005KT 14/M01 A3026 RMK A01 T01431006  RH  036%=      5-min Rain = 0
KHO1 171708Z 34007KT 14/M01 A3026 RMK A01 T01431005  RH  036%=      5-min Rain = 0
KHO1 171709Z 35006KT 14/M01 A3026 RMK A01 T01431008  RH  036%=      5-min Rain = 0
KHO1 171710Z 34006KT 14/M00 A3026 RMK A01 T01421004  RH  037%=      5-min Rain = 0
KHO1 171711Z 33005KT 14/M01 A3026 RMK A01 T01431005  RH  036%=      5-min Rain = 0
KHO1 171712Z 33005KT 15/M00 A3026 RMK A01 T01451004  RH  036%=      5-min Rain = 0
KHO1 171713Z 33005KT 15/M00 A3026 RMK A01 T01461004  RH  036%=      5-min Rain = 0
KHO1 171714Z 35005KT 15/M01 A3026 RMK A01 T01461007  RH  035%=      5-min Rain = 0
KHO1 171715Z 35005KT 15/M00 A3026 RMK A01 T01451003  RH  036%=      5-min Rain = 0
KHO1 171716Z 35007KT 15/M00 A3026 RMK A01 T01471004  RH  036%=      5-min Rain = 0
KHO1 171717Z 35006KT 15/M01 A3026 RMK A01 T01471007  RH  035%=      5-min Rain = 0
KHO1 171718Z 36005KT 15/M01 A3026 RMK A01 T01461008  RH  035%=      5-min Rain = 0
KHO1 171719Z 35004KT 15/M01 A3026 RMK A01 T01461006  RH  035%=      5-min Rain = 0
KHO1 171720Z 35005KT 15/M01 A3026 RMK A01 T01471007  RH  035%=      5-min Rain = 0
KHO1 171721Z 36006KT 15/M01 A3026 RMK A01 T01471007  RH  035%=      5-min Rain = 0
KHO1 171722Z 00005KT 15/M01 A3026 RMK A01 T01471008  RH  034%=      5-min Rain = 0
KHO1 171723Z 00005KT 15/M01 A3026 RMK A01 T01481008  RH  034%=      5-min Rain = 0
KHO1 171724Z 34004KT 15/M01 A3026 RMK A01 T01481007  RH  034%=      5-min Rain = 0
KHO1 171725Z 36005KT 15/M01 A3026 RMK A01 T01491008  RH  034%=      5-min Rain = 0
KHO1 171726Z 36005KT 15/M01 A3026 RMK A01 T01501006  RH  034%=      5-min Rain = 0
KHO1 171727Z 35006KT 15/M01 A3026 RMK A01 T01501008  RH  034%=      5-min Rain = 0
KHO1 171728Z 34006KT 15/M01 A3026 RMK A01 T01511008  RH  034%=      5-min Rain = 0
KHO1 171729Z 34006KT 15/M01 A3026 RMK A01 T01521009  RH  033%=      5-min Rain = 0
KHO1 171730Z 34006KT 15/M01 A3026 RMK A01 T01521009  RH  033%=      5-min Rain = 0
KHO1 171731Z 32006KT 15/M01 A3026 RMK A01 T01531008  RH  033%=      5-min Rain = 0
KHO1 171732Z 33004KT 16/M01 A3026 RMK A01 T01551008  RH  033%=      5-min Rain = 0
KHO1 171733Z 33005KT 16/M01 A3026 RMK A01 T01571008  RH  032%=      5-min Rain = 0
KHO1 171734Z 33005KT 16/M01 A3026 RMK A01 T01581009  RH  032%=      5-min Rain = 0
KHO1 171735Z 33006KT 16/M01 A3026 RMK A01 T01601007  RH  032%=      5-min Rain = 0
KHO1 171736Z 31006KT 16/M01 A3026 RMK A01 T01611008  RH  031%=      5-min Rain = 0
KHO1 171737Z 32007KT 16/M01 A3026 RMK A01 T01621012  RH  030%=      5-min Rain = 0
KHO1 171738Z 32009KT 16/M01 A3026 RMK A01 T01621013  RH  030%=      5-min Rain = 0
KHO1 171739Z 32008KT 16/M02 A3026 RMK A01 T01621015  RH  030%=      5-min Rain = 0
KHO1 171740Z 32008KT 16/M01 A3026 RMK A01 T01611013  RH  030%=      5-min Rain = 0
KHO1 171741Z 32008KT 16/M01 A3026 RMK A01 T01621013  RH  030%=      5-min Rain = 0
KHO1 171742Z 33008KT 16/M01 A3026 RMK A01 T01611013  RH  030%=      5-min Rain = 0
KHO1 171743Z 33006KT 16/M01 A3026 RMK A01 T01611011  RH  031%=      5-min Rain = 0
KHO1 171744Z 34007KT 16/M01 A3025 RMK A01 T01621010  RH  031%=      5-min Rain = 0
KHO1 171745Z 33008KT 16/M01 A3025 RMK A01 T01631012  RH  030%=      5-min Rain = 0
KHO1 171746Z 33007KT 16/M01 A3025 RMK A01 T01621014  RH  030%=      5-min Rain = 0
KHO1 171747Z 32004KT 16/M01 A3025 RMK A01 T01621013  RH  030%=      5-min Rain = 0
KHO1 171748Z 33006KT 16/M01 A3025 RMK A01 T01631013  RH  030%=      5-min Rain = 0
KHO1 171749Z 33006KT 16/M01 A3025 RMK A01 T01641013  RH  030%=      5-min Rain = 0
KHO1 171750Z 34004KT 16/M01 A3025 RMK A01 T01641012  RH  030%=      5-min Rain = 0
KHO1 171751Z 34006KT 17/M01 A3025 RMK A01 T01651013  RH  030%=      5-min Rain = 0
KHO1 171752Z 32006KT 17/M01 A3025 RMK A01 T01661012  RH  030%=      5-min Rain = 0
KHO1 171753Z 33006KT 17/M01 A3025 RMK A01 T01681013  RH  029%=      5-min Rain = 0
KHO1 171754Z 30006KT 17/M02 A3025 RMK A01 T01691016  RH  028%=      5-min Rain = 0
KHO1 171755Z 30007KT 17/M02 A3025 RMK A01 T01691017  RH  028%=      5-min Rain = 0
KHO1 171756Z 32006KT 17/M02 A3025 RMK A01 T01691017  RH  028%=      5-min Rain = 0
KHO1 171757Z 33006KT 17/M02 A3025 RMK A01 T01701018  RH  028%=      5-min Rain = 0
KHO1 171758Z 32005KT 17/M02 A3025 RMK A01 T01711017  RH  028%=      5-min Rain = 0
KHO1 171759Z 33006KT 17/M01 A3025 RMK A01 T01721013  RH  028%=      5-min Rain = 0
KHO1 171800Z 32008KT 17/M01 A3025 RMK A01 T01731013  RH  028%=      5-min Rain = 0
KHO1 171801Z 31006KT 18/M02 A3025 RMK A01 T01751017  RH  027%=      5-min Rain = 0
KHO1 171802Z 31005KT 18/M02 A3025 RMK A01 T01761018  RH  027%=      5-min Rain = 0
KHO1 171803Z 32005KT 18/M02 A3025 RMK A01 T01751017  RH  027%=      5-min Rain = 0
KHO1 171804Z 32007KT 18/M02 A3025 RMK A01 T01761022  RH  026%=      5-min Rain = 0
KHO1 171805Z 33006KT 18/M02 A3025 RMK A01 T01761022  RH  026%=      5-min Rain = 0
KHO1 171806Z 33005KT 18/M02 A3025 RMK A01 T01761020  RH  026%=      5-min Rain = 0
KHO1 171807Z 32007KT 18/M02 A3024 RMK A01 T01771018  RH  026%=      5-min Rain = 0
KHO1 171808Z 33007KT 18/M02 A3024 RMK A01 T01771021  RH  026%=      5-min Rain = 0
KHO1 171809Z 32008KT 18/M02 A3024 RMK A01 T01781020  RH  026%=      5-min Rain = 0
KHO1 171810Z 29008KT 18/M02 A3024 RMK A01 T01791019  RH  026%=      5-min Rain = 0
KHO1 171811Z 31006KT 18/M02 A3024 RMK A01 T01781019  RH  026%=      5-min Rain = 0
KHO1 171812Z 30006KT 18/M02 A3024 RMK A01 T01781022  RH  026%=      5-min Rain = 0
KHO1 171813Z 31005KT 18/M02 A3024 RMK A01 T01771022  RH  026%=      5-min Rain = 0
KHO1 171814Z 30003KT 18/M02 A3024 RMK A01 T01781024  RH  025%=      5-min Rain = 0
KHO1 171815Z 33003KT 18/M02 A3024 RMK A01 T01791022  RH  025%=      5-min Rain = 0
KHO1 171816Z 33005KT 18/M02 A3024 RMK A01 T01811020  RH  025%=      5-min Rain = 0
KHO1 171817Z 32004KT 18/M02 A3024 RMK A01 T01811018  RH  026%=      5-min Rain = 0
KHO1 171818Z 27006KT 18/M03 A3024 RMK A01 T01811028  RH  024%=      5-min Rain = 0
KHO1 171819Z 28006KT 18/M04 A3024 RMK A01 T01801035  RH  023%=      5-min Rain = 0
KHO1 171820Z 28005KT 18/M04 A3024 RMK A01 T01811035  RH  023%=      5-min Rain = 0
KHO1 171821Z 30004KT 18/M03 A3024 RMK A01 T01831030  RH  023%=      5-min Rain = 0
KHO1 171822Z 30007KT 19/M03 A3024 RMK A01 T01861032  RH  023%=      5-min Rain = 0
KHO1 171823Z 29007KT 19/M03 A3024 RMK A01 T01881034  RH  022%=      5-min Rain = 0
KHO1 171824Z 27006KT 19/M04 A3024 RMK A01 T01871043  RH  021%=      5-min Rain = 0
KHO1 171825Z 28005KT 19/M04 A3024 RMK A01 T01861043  RH  021%=      5-min Rain = 0
KHO1 171826Z 30006KT 19/M04 A3024 RMK A01 T01871036  RH  022%=      5-min Rain = 0
KHO1 171827Z 30008KT 19/M05 A3023 RMK A01 T01901053  RH  019%=      5-min Rain = 0
KHO1 171828Z 28007KT 19/M05 A3023 RMK A01 T01901047  RH  020%=      5-min Rain = 0
KHO1 171829Z 27006KT 19/M05 A3023 RMK A01 T01881047  RH  020%=      5-min Rain = 0
KHO1 171830Z 29006KT 19/M04 A3023 RMK A01 T01871040  RH  021%=      5-min Rain = 0
KHO1 171831Z 31008KT 19/M05 A3023 RMK A01 T01901046  RH  020%=      5-min Rain = 0
KHO1 171832Z 32006KT 19/M05 A3023 RMK A01 T01901050  RH  019%=      5-min Rain = 0
KHO1 171833Z 29006KT 19/M04 A3023 RMK A01 T01901044  RH  020%=      5-min Rain = 0
KHO1 171834Z 27010KT 19/M05 A3023 RMK A01 T01901053  RH  019%=      5-min Rain = 0
KHO1 171835Z 27007KT 19/M05 A3023 RMK A01 T01881054  RH  019%=      5-min Rain = 0
KHO1 171836Z 27006KT 19/M05 A3023 RMK A01 T01881045  RH  020%=      5-min Rain = 0
KHO1 171837Z 26005KT 19/M04 A3023 RMK A01 T01901044  RH  020%=      5-min Rain = 0
KHO1 171838Z 26007KT 19/M05 A3023 RMK A01 T01911048  RH  019%=      5-min Rain = 0
KHO1 171839Z 27010KT 19/M06 A3023 RMK A01 T01911057  RH  018%=      5-min Rain = 0
KHO1 171840Z 26008KT 19/M06 A3023 RMK A01 T01891062  RH  018%=      5-min Rain = 0
KHO1 171841Z 25006KT 19/M06 A3022 RMK A01 T01871061  RH  018%=      5-min Rain = 0
KHO1 171842Z 27007KT 19/M06 A3022 RMK A01 T01871055  RH  019%=      5-min Rain = 0
KHO1 171843Z 27007KT 19/M05 A3022 RMK A01 T01871053  RH  019%=      5-min Rain = 0
KHO1 171844Z 28009KT 19/M05 A3022 RMK A01 T01891053  RH  019%=      5-min Rain = 0
KHO1 171845Z 26009KT 19/M05 A3022 RMK A01 T01901051  RH  019%=      5-min Rain = 0
KHO1 171846Z 26010KT 19/M05 A3022 RMK A01 T01891048  RH  020%=      5-min Rain = 0
KHO1 171847Z 25007KT 19/M05 A3022 RMK A01 T01891047  RH  020%=      5-min Rain = 0
KHO1 171848Z 27008KT 19/M04 A3022 RMK A01 T01901043  RH  020%=      5-min Rain = 0
KHO1 171849Z 27006KT 19/M05 A3022 RMK A01 T01921045  RH  020%=      5-min Rain = 0
KHO1 171850Z 28007KT 19/M06 A3022 RMK A01 T01931057  RH  018%=      5-min Rain = 0
KHO1 171851Z 28006KT 19/M06 A3022 RMK A01 T01931055  RH  018%=      5-min Rain = 0
KHO1 171852Z 27007KT 19/M05 A3022 RMK A01 T01941050  RH  019%=      5-min Rain = 0
KHO1 171853Z 28010KT 20/M06 A3022 RMK A01 T01951057  RH  018%=      5-min Rain = 0
KHO1 171854Z 28010KT 19/M06 A3021 RMK A01 T01941059  RH  017%=      5-min Rain = 0
KHO1 171855Z 28008KT 19/M06 A3021 RMK A01 T01921058  RH  018%=      5-min Rain = 0
KHO1 171856Z 29008G13KT 19/M06 A3021 RMK A01 T01931055  RH  018%=      5-min Rain = 0
KHO1 171857Z 28010KT 19/M06 A3021 RMK A01 T01941058  RH  018%=      5-min Rain = 0
KHO1 171858Z 28008KT 19/M06 A3021 RMK A01 T01931056  RH  018%=      5-min Rain = 0
KHO1 171859Z 29008KT 19/M07 A3021 RMK A01 T01941071  RH  016%=      5-min Rain = 0
KHO1 171900Z 28007KT 19/M06 A3021 RMK A01 T01931061  RH  017%=      5-min Rain = 0
KHO1 171901Z 29006KT 19/M06 A3021 RMK A01 T01941055  RH  018%=      5-min Rain = 0
KHO1 171902Z 30005KT 20/M05 A3021 RMK A01 T01971053  RH  018%=      5-min Rain = 0
KHO1 171903Z 29006KT 20/M06 A3021 RMK A01 T01981057  RH  017%=      5-min Rain = 0
KHO1 171904Z 28004KT 20/M05 A3021 RMK A01 T01961052  RH  018%=      5-min Rain = 0
KHO1 171905Z 27005KT 20/M05 A302 RMK A01 T01971052  RH  018%=      5-min Rain = 0
KHO1 171906Z 28010KT 20/M06 A302 RMK A01 T01961058  RH  017%=      5-min Rain = 0
KHO1 171907Z 29008KT 20/M06 A302 RMK A01 T01951057  RH  018%=      5-min Rain = 0
KHO1 171908Z 28008KT 19/M06 A302 RMK A01 T01941058  RH  018%=      5-min Rain = 0
KHO1 171909Z 27007KT 19/M06 A302 RMK A01 T01941062  RH  017%=      5-min Rain = 0
KHO1 171910Z 26007KT 19/M06 A302 RMK A01 T01921060  RH  018%=      5-min Rain = 0
KHO1 171911Z 28007KT 19/M06 A302 RMK A01 T01921059  RH  018%=      5-min Rain = 0
KHO1 171912Z 25005KT 19/M06 A302 RMK A01 T01921061  RH  017%=      5-min Rain = 0
KHO1 171913Z 26005KT 19/M06 A302 RMK A01 T01911061  RH  018%=      5-min Rain = 0
KHO1 171914Z 28006KT 19/M06 A302 RMK A01 T01921055  RH  018%=      5-min Rain = 0
KHO1 171915Z 29005KT 19/M06 A3019 RMK A01 T01931058  RH  018%=      5-min Rain = 0
KHO1 171916Z 27005KT 20/M06 A3019 RMK A01 T01951057  RH  018%=      5-min Rain = 0
KHO1 171917Z 26009KT 19/M06 A3019 RMK A01 T01941064  RH  017%=      5-min Rain = 0
KHO1 171918Z 29008KT 19/M06 A3019 RMK A01 T01931061  RH  017%=      5-min Rain = 0
KHO1 171919Z 27009KT 19/M06 A3019 RMK A01 T01931061  RH  017%=      5-min Rain = 0
KHO1 171920Z 29008KT 19/M06 A3019 RMK A01 T01911059  RH  018%=      5-min Rain = 0
KHO1 171921Z 27006KT 19/M06 A3019 RMK A01 T01911058  RH  018%=      5-min Rain = 0
KHO1 171922Z 27004KT 19/M06 A3019 RMK A01 T01911056  RH  018%=      5-min Rain = 0
KHO1 171923Z 29005KT 19/M06 A3019 RMK A01 T01921055  RH  018%=      5-min Rain = 0
KHO1 171924Z 29005KT 19/M05 A3019 RMK A01 T01931053  RH  018%=      5-min Rain = 0
KHO1 171925Z 28007KT 19/M06 A3019 RMK A01 T01941062  RH  017%=      5-min Rain = 0
KHO1 171926Z 28008KT 19/M07 A3018 RMK A01 T01931072  RH  016%=      5-min Rain = 0
KHO1 171927Z 28008KT 19/M07 A3018 RMK A01 T01931065  RH  017%=      5-min Rain = 0
KHO1 171928Z 29008KT 19/M06 A3018 RMK A01 T01941064  RH  017%=      5-min Rain = 0
KHO1 171929Z 30006KT 20/M06 A3018 RMK A01 T01951064  RH  017%=      5-min Rain = 0
KHO1 171930Z 30007KT 20/M06 A3018 RMK A01 T01961060  RH  017%=      5-min Rain = 0
KHO1 171931Z 30006KT 20/M06 A3018 RMK A01 T01961058  RH  017%=      5-min Rain = 0
KHO1 171932Z 27006KT 20/M05 A3018 RMK A01 T01951054  RH  018%=      5-min Rain = 0
KHO1 171933Z 24007KT 19/M05 A3018 RMK A01 T01941054  RH  018%=      5-min Rain = 0
KHO1 171934Z 23005KT 19/M05 A3018 RMK A01 T01921054  RH  018%=      5-min Rain = 0
KHO1 171935Z 24005KT 19/M05 A3018 RMK A01 T01931053  RH  018%=      5-min Rain = 0
KHO1 171936Z 25008KT 19/M06 A3018 RMK A01 T01921055  RH  018%=      5-min Rain = 0
KHO1 171937Z 25007KT 19/M05 A3018 RMK A01 T01911054  RH  019%=      5-min Rain = 0
KHO1 171938Z 25008KT 19/M05 A3017 RMK A01 T01921052  RH  019%=      5-min Rain = 0
KHO1 171939Z 26008KT 19/M05 A3017 RMK A01 T01931054  RH  018%=      5-min Rain = 0
KHO1 171940Z 27008KT 19/M06 A3017 RMK A01 T01931056  RH  018%=      5-min Rain = 0
KHO1 171941Z 26008KT 19/M05 A3017 RMK A01 T01941053  RH  018%=      5-min Rain = 0
KHO1 171942Z 29008KT 19/M05 A3017 RMK A01 T01931054  RH  018%=      5-min Rain = 0
KHO1 171943Z 28007KT 19/M05 A3017 RMK A01 T01931054  RH  018%=      5-min Rain = 0
KHO1 171944Z 28006KT 19/M05 A3017 RMK A01 T01931054  RH  018%=      5-min Rain = 0
KHO1 171945Z 29007KT 20/M06 A3017 RMK A01 T01951056  RH  018%=      5-min Rain = 0
KHO1 171946Z 29006KT 20/M05 A3017 RMK A01 T01951052  RH  018%=      5-min Rain = 0
KHO1 171947Z 28006KT 20/M06 A3017 RMK A01 T01971055  RH  018%=      5-min Rain = 0
KHO1 171948Z 26005KT 20/M06 A3017 RMK A01 T01961058  RH  017%=      5-min Rain = 0
KHO1 171949Z 25007KT 20/M06 A3017 RMK A01 T01951055  RH  018%=      5-min Rain = 0
KHO1 171950Z 25006KT 19/M06 A3017 RMK A01 T01941058  RH  018%=      5-min Rain = 0
KHO1 171951Z 21005KT 19/M06 A3017 RMK A01 T01941055  RH  018%=      5-min Rain = 0
KHO1 171952Z 22005G10KT 19/M06 A3017 RMK A01 T01941061  RH  017%=      5-min Rain = 0
KHO1 171953Z 28009KT 19/M06 A3017 RMK A01 T01941057  RH  018%=      5-min Rain = 0
KHO1 171954Z 27008KT 19/M06 A3017 RMK A01 T01941058  RH  018%=      5-min Rain = 0
KHO1 171955Z 25006KT 19/M06 A3017 RMK A01 T01941058  RH  018%=      5-min Rain = 0
KHO1 171956Z 24008KT 20/M06 A3017 RMK A01 T01951060  RH  017%=      5-min Rain = 0
KHO1 171957Z 26005KT 20/M05 A3016 RMK A01 T01961054  RH  018%=      5-min Rain = 0
KHO1 171958Z 26007KT 20/M06 A3016 RMK A01 T01951056  RH  018%=      5-min Rain = 0
KHO1 171959Z 26007KT 19/M06 A3016 RMK A01 T01941060  RH  017%=      5-min Rain = 0
KHO1 172000Z 24005KT 19/M06 A3016 RMK A01 T01931061  RH  017%=      5-min Rain = 0
KHO1 172001Z 24006KT 19/M06 A3016 RMK A01 T01931062  RH  017%=      5-min Rain = 0
KHO1 172002Z 23005KT 19/M07 A3016 RMK A01 T01921067  RH  017%=      5-min Rain = 0
KHO1 172003Z 23004KT 19/M06 A3016 RMK A01 T01921062  RH  017%=      5-min Rain = 0
KHO1 172004Z 24005KT 19/M06 A3016 RMK A01 T01931062  RH  017%=      5-min Rain = 0
KHO1 172005Z 26006KT 20/M06 A3016 RMK A01 T01951060  RH  017%=      5-min Rain = 0
KHO1 172006Z 26008KT 20/M07 A3016 RMK A01 T01961067  RH  016%=      5-min Rain = 0
KHO1 172007Z 26007KT 19/M06 A3016 RMK A01 T01941064  RH  017%=      5-min Rain = 0
KHO1 172008Z 26008KT 20/M06 A3016 RMK A01 T01951061  RH  017%=      5-min Rain = 0
KHO1 172009Z 24009KT 20/M07 A3016 RMK A01 T01961065  RH  017%=      5-min Rain = 0
KHO1 172010Z 24006KT 20/M07 A3016 RMK A01 T01951065  RH  017%=      5-min Rain = 0
KHO1 172011Z 26004KT 20/M07 A3016 RMK A01 T01961067  RH  016%=      5-min Rain = 0
KHO1 172012Z 27006KT 20/M07 A3016 RMK A01 T01961072  RH  016%=      5-min Rain = 0
KHO1 172013Z 28007KT 20/M07 A3016 RMK A01 T01971073  RH  015%=      5-min Rain = 0
KHO1 172014Z 27005KT 20/M08 A3016 RMK A01 T01991075  RH  015%=      5-min Rain = 0
KHO1 172015Z 27006KT 20/M08 A3016 RMK A01 T02001076  RH  015%=      5-min Rain = 0
KHO1 172016Z 26006KT 20/M07 A3016 RMK A01 T01991074  RH  015%=      5-min Rain = 0
KHO1 172017Z 26007KT 20/M08 A3016 RMK A01 T01981076  RH  015%=      5-min Rain = 0
KHO1 172018Z 25006KT 20/M07 A3016 RMK A01 T01991072  RH  015%=      5-min Rain = 0
KHO1 172019Z 24007KT 20/M08 A3016 RMK A01 T01981076  RH  015%=      5-min Rain = 0
KHO1 172020Z 23007KT 20/M07 A3016 RMK A01 T01971069  RH  016%=      5-min Rain = 0
KHO1 172021Z 23007KT 20/M07 A3016 RMK A01 T01951068  RH  016%=      5-min Rain = 0
KHO1 172022Z 23007KT 20/M06 A3016 RMK A01 T01951060  RH  017%=      5-min Rain = 0
KHO1 172023Z 23009KT 20/M05 A3016 RMK A01 T01951049  RH  019%=      5-min Rain = 0
KHO1 172024Z 24008KT 20/M05 A3016 RMK A01 T01951047  RH  019%=      5-min Rain = 0
KHO1 172025Z 23010KT 19/M05 A3016 RMK A01 T01941047  RH  019%=      5-min Rain = 0
KHO1 172026Z 22009KT 19/M05 A3015 RMK A01 T01931049  RH  019%=      5-min Rain = 0
KHO1 172027Z 22007KT 19/M05 A3015 RMK A01 T01921047  RH  019%=      5-min Rain = 0
KHO1 172028Z 21010KT 19/M05 A3015 RMK A01 T01931047  RH  019%=      5-min Rain = 0
KHO1 172029Z 20009KT 19/M05 A3015 RMK A01 T01931046  RH  019%=      5-min Rain = 0
KHO1 172030Z 20008KT 19/M05 A3015 RMK A01 T01921047  RH  019%=      5-min Rain = 0
KHO1 172031Z 22008KT 19/M05 A3015 RMK A01 T01931047  RH  019%=      5-min Rain = 0
KHO1 172032Z 21007KT 19/M04 A3015 RMK A01 T01931042  RH  020%=      5-min Rain = 0
KHO1 172033Z 21008KT 20/M04 A3015 RMK A01 T01951039  RH  020%=      5-min Rain = 0
KHO1 172034Z 21008KT 20/M04 A3015 RMK A01 T01961040  RH  020%=      5-min Rain = 0
KHO1 172035Z 22006KT 19/M04 A3015 RMK A01 T01941041  RH  020%=      5-min Rain = 0
KHO1 172036Z 19005KT 20/M04 A3015 RMK A01 T01951038  RH  020%=      5-min Rain = 0
KHO1 172037Z 22007KT 20/M04 A3015 RMK A01 T01961039  RH  020%=      5-min Rain = 0
KHO1 172038Z 22010KT 20/M04 A3015 RMK A01 T01961041  RH  020%=      5-min Rain = 0
KHO1 172039Z 23007KT 19/M04 A3015 RMK A01 T01931043  RH  020%=      5-min Rain = 0
KHO1 172040Z 22007KT 20/M04 A3015 RMK A01 T01951040  RH  020%=      5-min Rain = 0
KHO1 172041Z 21008KT 20/M04 A3015 RMK A01 T01951038  RH  020%=      5-min Rain = 0
KHO1 172042Z 24010KT 20/M04 A3015 RMK A01 T01951035  RH  021%=      5-min Rain = 0
KHO1 172043Z 23010KT 20/M04 A3015 RMK A01 T01961035  RH  021%=      5-min Rain = 0
KHO1 172044Z 21009KT 20/M04 A3014 RMK A01 T01961035  RH  021%=      5-min Rain = 0
KHO1 172045Z 20008KT 20/M04 A3014 RMK A01 T01951035  RH  021%=      5-min Rain = 0
KHO1 172046Z 22009KT 20/M03 A3014 RMK A01 T01961034  RH  021%=      5-min Rain = 0
KHO1 172047Z 22008KT 20/M04 A3014 RMK A01 T01981035  RH  021%=      5-min Rain = 0
KHO1 172048Z 22008KT 20/M04 A3014 RMK A01 T01961039  RH  020%=      5-min Rain = 0
KHO1 172049Z 20007KT 19/M04 A3014 RMK A01 T01941040  RH  020%=      5-min Rain = 0
KHO1 172050Z 20009KT 20/M04 A3014 RMK A01 T01951037  RH  021%=      5-min Rain = 0
KHO1 172051Z 20010KT 19/M04 A3014 RMK A01 T01941036  RH  021%=      5-min Rain = 0
KHO1 172052Z 21011KT 20/M04 A3014 RMK A01 T01951039  RH  020%=      5-min Rain = 0
KHO1 172053Z 21010KT 19/M04 A3014 RMK A01 T01931043  RH  020%=      5-min Rain = 0
KHO1 172054Z 21009KT 19/M04 A3014 RMK A01 T01921042  RH  020%=      5-min Rain = 0
KHO1 172055Z 21008KT 19/M04 A3014 RMK A01 T01901043  RH  020%=      5-min Rain = 0
KHO1 172056Z 23008KT 19/M04 A3014 RMK A01 T01911043  RH  020%=      5-min Rain = 0
KHO1 172057Z 24007KT 19/M04 A3014 RMK A01 T01911043  RH  020%=      5-min Rain = 0
KHO1 172058Z 23009KT 19/M04 A3014 RMK A01 T01901044  RH  020%=      5-min Rain = 0
KHO1 172059Z 24008KT 19/M05 A3014 RMK A01 T01881047  RH  020%=      5-min Rain = 0
KHO1 172100Z 22008KT 19/M05 A3014 RMK A01 T01871047  RH  020%=      5-min Rain = 0
KHO1 172101Z 23008KT 19/M05 A3014 RMK A01 T01871048  RH  020%=      5-min Rain = 0
KHO1 172102Z 22008KT 19/M05 A3014 RMK A01 T01871048  RH  020%=      5-min Rain = 0
KHO1 172103Z 23009KT 19/M05 A3014 RMK A01 T01861053  RH  019%=      5-min Rain = 0
KHO1 172104Z 23008KT 19/M06 A3014 RMK A01 T01861056  RH  019%=      5-min Rain = 0
KHO1 172105Z 22008KT 19/M06 A3014 RMK A01 T01871059  RH  018%=      5-min Rain = 0
KHO1 172106Z 22008KT 19/M06 A3014 RMK A01 T01871064  RH  018%=      5-min Rain = 0
KHO1 172107Z 23008KT 19/M06 A3014 RMK A01 T01871060  RH  018%=      5-min Rain = 0
KHO1 172108Z 24008KT 19/M06 A3014 RMK A01 T01881056  RH  019%=      5-min Rain = 0
KHO1 172109Z 24008KT 19/M05 A3014 RMK A01 T01871052  RH  019%=      5-min Rain = 0
KHO1 172110Z 21008KT 19/M05 A3014 RMK A01 T01881050  RH  019%=      5-min Rain = 0
KHO1 172111Z 22006KT 19/M05 A3014 RMK A01 T01881049  RH  019%=      5-min Rain = 0
KHO1 172112Z 20006KT 19/M05 A3014 RMK A01 T01891054  RH  019%=      5-min Rain = 0
KHO1 172113Z 21007KT 19/M05 A3014 RMK A01 T01891053  RH  019%=      5-min Rain = 0
KHO1 172114Z 21009KT 19/M05 A3014 RMK A01 T01881052  RH  019%=      5-min Rain = 0
KHO1 172115Z 21008KT 19/M05 A3014 RMK A01 T01881051  RH  019%=      5-min Rain = 0
KHO1 172116Z 21007KT 19/M05 A3014 RMK A01 T01881052  RH  019%=      5-min Rain = 0
KHO1 172117Z 22007KT 19/M05 A3014 RMK A01 T01881053  RH  019%=      5-min Rain = 0
KHO1 172118Z 21007KT 19/M06 A3014 RMK A01 T01881057  RH  019%=      5-min Rain = 0
KHO1 172119Z 22007KT 19/M06 A3014 RMK A01 T01881056  RH  019%=      5-min Rain = 0
KHO1 172120Z 22007KT 19/M06 A3014 RMK A01 T01881057  RH  018%=      5-min Rain = 0
KHO1 172121Z 21007KT 19/M06 A3014 RMK A01 T01881056  RH  019%=      5-min Rain = 0
KHO1 172122Z 20008KT 19/M06 A3014 RMK A01 T01881058  RH  018%=      5-min Rain = 0
KHO1 172123Z 21008KT 19/M06 A3014 RMK A01 T01881057  RH  018%=      5-min Rain = 0
KHO1 172124Z 22008KT 19/M05 A3014 RMK A01 T01881054  RH  019%=      5-min Rain = 0
KHO1 172125Z 23008KT 19/M05 A3014 RMK A01 T01881054  RH  019%=      5-min Rain = 0
KHO1 172126Z 23008KT 19/M06 A3014 RMK A01 T01891055  RH  019%=      5-min Rain = 0
KHO1 172127Z 22007KT 19/M06 A3014 RMK A01 T01891059  RH  018%=      5-min Rain = 0
KHO1 172128Z 21006KT 19/M06 A3014 RMK A01 T01901060  RH  018%=      5-min Rain = 0
KHO1 172129Z 22009KT 19/M06 A3014 RMK A01 T01911063  RH  017%=      5-min Rain = 0
KHO1 172130Z 22008KT 19/M07 A3014 RMK A01 T01901066  RH  017%=      5-min Rain = 0
KHO1 172131Z 23009KT 19/M06 A3014 RMK A01 T01891062  RH  018%=      5-min Rain = 0
KHO1 172132Z 23009KT 19/M06 A3014 RMK A01 T01891064  RH  017%=      5-min Rain = 0
KHO1 172133Z 22008KT 19/M07 A3014 RMK A01 T01891066  RH  017%=      5-min Rain = 0
KHO1 172134Z 21008KT 19/M07 A3014 RMK A01 T01901065  RH  017%=      5-min Rain = 0
KHO1 172135Z 21010KT 19/M07 A3014 RMK A01 T01911072  RH  016%=      5-min Rain = 0
KHO1 172136Z 22010KT 19/M08 A3014 RMK A01 T01901075  RH  016%=      5-min Rain = 0
KHO1 172137Z 22008KT 19/M07 A3014 RMK A01 T01911073  RH  016%=      5-min Rain = 0
KHO1 172138Z 23009KT 19/M07 A3014 RMK A01 T01931073  RH  016%=      5-min Rain = 0
KHO1 172139Z 22009KT 19/M07 A3014 RMK A01 T01931072  RH  016%=      5-min Rain = 0
KHO1 172140Z 21008KT 19/M07 A3014 RMK A01 T01941071  RH  016%=      5-min Rain = 0
KHO1 172141Z 21008KT 20/M07 A3014 RMK A01 T01951073  RH  016%=      5-min Rain = 0
KHO1 172142Z 23009KT 19/M08 A3014 RMK A01 T01941075  RH  015%=      5-min Rain = 0
KHO1 172143Z 22007KT 20/M07 A3014 RMK A01 T01951069  RH  016%=      5-min Rain = 0
KHO1 172144Z 21007KT 20/M07 A3014 RMK A01 T01971069  RH  016%=      5-min Rain = 0
KHO1 172145Z 21007KT 20/M07 A3014 RMK A01 T01951073  RH  016%=      5-min Rain = 0
KHO1 172146Z 21007KT 19/M07 A3014 RMK A01 T01941072  RH  016%=      5-min Rain = 0
KHO1 172147Z 23007KT 19/M07 A3014 RMK A01 T01941070  RH  016%=      5-min Rain = 0
KHO1 172148Z 23007KT 19/M07 A3014 RMK A01 T01941073  RH  016%=      5-min Rain = 0
KHO1 172149Z 23006KT 19/M07 A3014 RMK A01 T01931071  RH  016%=      5-min Rain = 0
KHO1 172150Z 23007KT 19/M07 A3014 RMK A01 T01941069  RH  016%=      5-min Rain = 0
KHO1 172151Z 20007KT 19/M07 A3014 RMK A01 T01941068  RH  016%=      5-min Rain = 0
KHO1 172152Z 21006KT 19/M07 A3014 RMK A01 T01941069  RH  016%=      5-min Rain = 0
KHO1 172153Z 21008KT 20/M08 A3014 RMK A01 T01951075  RH  015%=      5-min Rain = 0
KHO1 172154Z 21007KT 20/M08 A3013 RMK A01 T01961075  RH  015%=      5-min Rain = 0
KHO1 172155Z 21009KT 20/M08 A3013 RMK A01 T01961076  RH  015%=      5-min Rain = 0
KHO1 172156Z 21008KT 20/M08 A3013 RMK A01 T01971076  RH  015%=      5-min Rain = 0
KHO1 172157Z 21009KT 20/M07 A3013 RMK A01 T01971071  RH  016%=      5-min Rain = 0
KHO1 172158Z 21009KT 20/M07 A3013 RMK A01 T01971072  RH  015%=      5-min Rain = 0
KHO1 172159Z 20010KT 20/M07 A3013 RMK A01 T01971067  RH  016%=      5-min Rain = 0
KHO1 172200Z 21009KT 20/M07 A3013 RMK A01 T01971065  RH  016%=      5-min Rain = 0
KHO1 172201Z 20008KT 20/M06 A3013 RMK A01 T01981063  RH  017%=      5-min Rain = 0
KHO1 172202Z 19008KT 20/M06 A3013 RMK A01 T01981063  RH  017%=      5-min Rain = 0
KHO1 172203Z 20008KT 20/M06 A3013 RMK A01 T01971061  RH  017%=      5-min Rain = 0
KHO1 172204Z 21008KT 20/M06 A3013 RMK A01 T01981063  RH  017%=      5-min Rain = 0
KHO1 172205Z 21008KT 20/M06 A3013 RMK A01 T01981064  RH  016%=      5-min Rain = 0
KHO1 172206Z 22008KT 20/M06 A3013 RMK A01 T01971063  RH  017%=      5-min Rain = 0
KHO1 172207Z 21011KT 20/M07 A3013 RMK A01 T01971066  RH  016%=      5-min Rain = 0
KHO1 172208Z 20009KT 20/M06 A3013 RMK A01 T01961064  RH  017%=      5-min Rain = 0
KHO1 172209Z 19009KT 20/M06 A3013 RMK A01 T01971060  RH  017%=      5-min Rain = 0
KHO1 172210Z 21010KT 20/M06 A3013 RMK A01 T01981062  RH  017%=      5-min Rain = 0
KHO1 172211Z 21007KT 20/M06 A3013 RMK A01 T01971062  RH  017%=      5-min Rain = 0
KHO1 172212Z 21008KT 20/M06 A3013 RMK A01 T01981062  RH  017%=      5-min Rain = 0
KHO1 172213Z 20007KT 20/M06 A3013 RMK A01 T01981062  RH  017%=      5-min Rain = 0
KHO1 172214Z 21007KT 20/M06 A3013 RMK A01 T02001058  RH  017%=      5-min Rain = 0
KHO1 172215Z 19008KT 20/M06 A3013 RMK A01 T02021064  RH  016%=      5-min Rain = 0
KHO1 172216Z 19008KT 20/M07 A3013 RMK A01 T02021067  RH  016%=      5-min Rain = 0
KHO1 172217Z 19008KT 20/M07 A3013 RMK A01 T02021065  RH  016%=      5-min Rain = 0
KHO1 172218Z 19008KT 20/M06 A3013 RMK A01 T02021061  RH  016%=      5-min Rain = 0
KHO1 172219Z 21008KT 20/M06 A3013 RMK A01 T02021064  RH  016%=      5-min Rain = 0
KHO1 172220Z 22009KT 20/M07 A3013 RMK A01 T02021066  RH  016%=      5-min Rain = 0
KHO1 172221Z 20008KT 20/M06 A3013 RMK A01 T02011063  RH  016%=      5-min Rain = 0
KHO1 172222Z 20009KT 20/M06 A3013 RMK A01 T02011063  RH  016%=      5-min Rain = 0
KHO1 172223Z 19008KT 20/M06 A3013 RMK A01 T02001059  RH  017%=      5-min Rain = 0
KHO1 172224Z 18010KT 20/M06 A3013 RMK A01 T02011055  RH  017%=      5-min Rain = 0
KHO1 172225Z 20012KT 20/M05 A3013 RMK A01 T02011054  RH  017%=      5-min Rain = 0
KHO1 172226Z 19012KT 20/M06 A3013 RMK A01 T02001056  RH  017%=      5-min Rain = 0
KHO1 172227Z 20012KT 20/M06 A3013 RMK A01 T01991056  RH  017%=      5-min Rain = 0
KHO1 172228Z 20011KT 20/M06 A3013 RMK A01 T01991057  RH  017%=      5-min Rain = 0
KHO1 172229Z 20011KT 20/M06 A3013 RMK A01 T01981057  RH  017%=      5-min Rain = 0
KHO1 172230Z 20012KT 20/M06 A3013 RMK A01 T01991057  RH  017%=      5-min Rain = 0
KHO1 172231Z 19013KT 20/M06 A3013 RMK A01 T01981062  RH  017%=      5-min Rain = 0
KHO1 172232Z 20013KT 20/M06 A3013 RMK A01 T01961063  RH  017%=      5-min Rain = 0
KHO1 172233Z 20011KT 20/M06 A3013 RMK A01 T01961063  RH  017%=      5-min Rain = 0
KHO1 172234Z 20010KT 20/M07 A3013 RMK A01 T01971066  RH  016%=      5-min Rain = 0
KHO1 172235Z 20010KT 20/M07 A3013 RMK A01 T01971066  RH  016%=      5-min Rain = 0
KHO1 172236Z 19010KT 20/M06 A3013 RMK A01 T01971064  RH  017%=      5-min Rain = 0
KHO1 172237Z 19011KT 20/M07 A3013 RMK A01 T01971067  RH  016%=      5-min Rain = 0
KHO1 172238Z 20009KT 20/M06 A3013 RMK A01 T01971063  RH  017%=      5-min Rain = 0
KHO1 172239Z 21010KT 20/M06 A3013 RMK A01 T01961064  RH  017%=      5-min Rain = 0
KHO1 172240Z 21009KT 20/M06 A3013 RMK A01 T01971063  RH  017%=      5-min Rain = 0
KHO1 172241Z 23009KT 20/M07 A3013 RMK A01 T01971065  RH  016%=      5-min Rain = 0
KHO1 172242Z 22010KT 20/M07 A3013 RMK A01 T01971065  RH  016%=      5-min Rain = 0
KHO1 172243Z 21008KT 20/M06 A3013 RMK A01 T01971062  RH  017%=      5-min Rain = 0
KHO1 172244Z 22008KT 20/M06 A3013 RMK A01 T01981061  RH  017%=      5-min Rain = 0
KHO1 172245Z 22009KT 20/M06 A3013 RMK A01 T01981059  RH  017%=      5-min Rain = 0
KHO1 172246Z 21010KT 20/M06 A3013 RMK A01 T01981058  RH  017%=      5-min Rain = 0
KHO1 172247Z 21011KT 20/M06 A3013 RMK A01 T01971058  RH  017%=      5-min Rain = 0
KHO1 172248Z 21010KT 20/M05 A3013 RMK A01 T01961054  RH  018%=      5-min Rain = 0
KHO1 172249Z 20006KT 20/M05 A3013 RMK A01 T01971050  RH  018%=      5-min Rain = 0
KHO1 172250Z 21009KT 20/M05 A3013 RMK A01 T01981052  RH  018%=      5-min Rain = 0
KHO1 172251Z 21012KT 20/M06 A3013 RMK A01 T01961060  RH  017%=      5-min Rain = 0
KHO1 172252Z 20011KT 20/M06 A3013 RMK A01 T01951062  RH  017%=      5-min Rain = 0
KHO1 172253Z 20011KT 19/M06 A3013 RMK A01 T01941062  RH  017%=      5-min Rain = 0
KHO1 172254Z 20012KT 19/M06 A3013 RMK A01 T01931062  RH  017%=      5-min Rain = 0
KHO1 172255Z 20010KT 19/M06 A3013 RMK A01 T01931060  RH  018%=      5-min Rain = 0
KHO1 172256Z 20010KT 19/M06 A3013 RMK A01 T01931058  RH  018%=      5-min Rain = 0
KHO1 172257Z 20011KT 19/M06 A3013 RMK A01 T01931057  RH  018%=      5-min Rain = 0
KHO1 172258Z 20010KT 19/M06 A3013 RMK A01 T01921056  RH  018%=      5-min Rain = 0
KHO1 172259Z 20010KT 19/M05 A3013 RMK A01 T01921054  RH  018%=      5-min Rain = 0
KHO1 172300Z 19011KT 19/M05 A3013 RMK A01 T01921053  RH  019%=      5-min Rain = 0
KHO1 172301Z 19010KT 19/M05 A3013 RMK A01 T01911052  RH  019%=      5-min Rain = 0
KHO1 172302Z 19009KT 19/M05 A3013 RMK A01 T01911051  RH  019%=      5-min Rain = 0
KHO1 172303Z 19009KT 19/M05 A3013 RMK A01 T01911050  RH  019%=      5-min Rain = 0
KHO1 172304Z 19010KT 19/M05 A3013 RMK A01 T01911048  RH  019%=      5-min Rain = 0
KHO1 172305Z 21008KT 19/M04 A3013 RMK A01 T01911044  RH  020%=      5-min Rain = 0
KHO1 172306Z 20010KT 19/M04 A3013 RMK A01 T01911040  RH  021%=      5-min Rain = 0
KHO1 172307Z 20009KT 19/M04 A3013 RMK A01 T01911038  RH  021%=      5-min Rain = 0
KHO1 172308Z 20009KT 19/M04 A3013 RMK A01 T01911036  RH  021%=      5-min Rain = 0
KHO1 172309Z 20011KT 19/M04 A3013 RMK A01 T01901036  RH  021%=      5-min Rain = 0
KHO1 172310Z 20011KT 19/M04 A3013 RMK A01 T01901037  RH  021%=      5-min Rain = 0
KHO1 172311Z 20010KT 19/M04 A3012 RMK A01 T01891037  RH  021%=      5-min Rain = 0
KHO1 172312Z 20011KT 19/M04 A3012 RMK A01 T01891038  RH  021%=      5-min Rain = 0
KHO1 172313Z 20010KT 19/M04 A3012 RMK A01 T01881038  RH  021%=      5-min Rain = 0
KHO1 172314Z 20011KT 19/M04 A3012 RMK A01 T01881039  RH  021%=      5-min Rain = 0
KHO1 172315Z 20010KT 19/M04 A3012 RMK A01 T01871039  RH  021%=      5-min Rain = 0
KHO1 172316Z 20010KT 19/M04 A3012 RMK A01 T01871038  RH  021%=      5-min Rain = 0
KHO1 172317Z 20011KT 19/M04 A3012 RMK A01 T01861039  RH  021%=      5-min Rain = 0
KHO1 172318Z 20010KT 19/M04 A3012 RMK A01 T01861039  RH  021%=      5-min Rain = 0
KHO1 172319Z 20010KT 19/M04 A3012 RMK A01 T01861038  RH  022%=      5-min Rain = 0
KHO1 172320Z 20010KT 19/M04 A3012 RMK A01 T01861038  RH  022%=      5-min Rain = 0
KHO1 172321Z 20010KT 19/M04 A3012 RMK A01 T01851038  RH  022%=      5-min Rain = 0
KHO1 172322Z 19010KT 18/M04 A3012 RMK A01 T01841038  RH  022%=      5-min Rain = 0
KHO1 172323Z 20010KT 18/M04 A3012 RMK A01 T01841039  RH  022%=      5-min Rain = 0
KHO1 172324Z 20012KT 18/M04 A3012 RMK A01 T01831038  RH  022%=      5-min Rain = 0
KHO1 172325Z 20010KT 18/M04 A3012 RMK A01 T01821038  RH  022%=      5-min Rain = 0
KHO1 172326Z 20010KT 18/M04 A3012 RMK A01 T01821038  RH  022%=      5-min Rain = 0
KHO1 172327Z 19009KT 18/M04 A3012 RMK A01 T01821038  RH  022%=      5-min Rain = 0
KHO1 172328Z 20010KT 18/M04 A3012 RMK A01 T01811040  RH  022%=      5-min Rain = 0
KHO1 172329Z 20009KT 18/M04 A3012 RMK A01 T01811040  RH  022%=      5-min Rain = 0
KHO1 172330Z 20008KT 18/M04 A3012 RMK A01 T01801039  RH  022%=      5-min Rain = 0
KHO1 172331Z 20009KT 18/M04 A3012 RMK A01 T01791040  RH  022%=      5-min Rain = 0
KHO1 172332Z 20010KT 18/M04 A3012 RMK A01 T01791041  RH  022%=      5-min Rain = 0
KHO1 172333Z 20010KT 18/M04 A3012 RMK A01 T01791044  RH  022%=      5-min Rain = 0
KHO1 172334Z 20009KT 18/M04 A3012 RMK A01 T01781044  RH  022%=      5-min Rain = 0
KHO1 172335Z 20009KT 18/M05 A3012 RMK A01 T01781045  RH  022%=      5-min Rain = 0
KHO1 172336Z 20010KT 18/M05 A3012 RMK A01 T01771046  RH  021%=      5-min Rain = 0
KHO1 172337Z 20010KT 18/M05 A3012 RMK A01 T01771045  RH  022%=      5-min Rain = 0
KHO1 172338Z 20009KT 18/M04 A3012 RMK A01 T01761044  RH  022%=      5-min Rain = 0
KHO1 172339Z 20009KT 18/M04 A3012 RMK A01 T01751043  RH  022%=      5-min Rain = 0
KHO1 172340Z 20011KT 18/M04 A3012 RMK A01 T01751043  RH  022%=      5-min Rain = 0
KHO1 172341Z 19009KT 17/M04 A3012 RMK A01 T01741042  RH  023%=      5-min Rain = 0
KHO1 172342Z 19009KT 17/M04 A3012 RMK A01 T01731041  RH  023%=      5-min Rain = 0
KHO1 172343Z 19009KT 17/M04 A3012 RMK A01 T01731040  RH  023%=      5-min Rain = 0
KHO1 172344Z 19009KT 17/M04 A3012 RMK A01 T01721039  RH  023%=      5-min Rain = 0
KHO1 172345Z 19009KT 17/M04 A3012 RMK A01 T01701039  RH  024%=      5-min Rain = 0
KHO1 172346Z 19010KT 17/M04 A3012 RMK A01 T01701039  RH  024%=      5-min Rain = 0
KHO1 172347Z 19009KT 17/M04 A3012 RMK A01 T01691039  RH  024%=      5-min Rain = 0
KHO1 172348Z 19009KT 17/M04 A3012 RMK A01 T01671039  RH  024%=      5-min Rain = 0
KHO1 172349Z 19010KT 17/M04 A3012 RMK A01 T01661039  RH  024%=      5-min Rain = 0
KHO1 172350Z 19010KT 17/M04 A3012 RMK A01 T01661039  RH  024%=      5-min Rain = 0
KHO1 172351Z 19008KT 17/M04 A3012 RMK A01 T01661038  RH  025%=      5-min Rain = 0
KHO1 172352Z 19009KT 16/M04 A3012 RMK A01 T01641038  RH  025%=      5-min Rain = 0
KHO1 172353Z 19009KT 16/M04 A3012 RMK A01 T01641038  RH  025%=      5-min Rain = 0
KHO1 172354Z 19009KT 16/M04 A3012 RMK A01 T01631038  RH  025%=      5-min Rain = 0
KHO1 172355Z 19009KT 16/M04 A3012 RMK A01 T01621038  RH  025%=      5-min Rain = 0
KHO1 172356Z 19009KT 16/M04 A3012 RMK A01 T01611037  RH  025%=      5-min Rain = 0
KHO1 172357Z 19008KT 16/M04 A3012 RMK A01 T01601037  RH  026%=      5-min Rain = 0
KHO1 172358Z 19008KT 16/M04 A3012 RMK A01 T01591037  RH  026%=      5-min Rain = 0
KHO1 172359Z 19008KT 16/M04 A3012 RMK A01 T01581036  RH  026%=      5-min Rain = 0
KHO1 180000Z 19008KT 16/M04 A3012 RMK A01 T01581036  RH  026%=      5-min Rain = 0
KHO1 180001Z 18009KT 16/M04 A3012 RMK A01 T01571037  RH  026%=      5-min Rain = 0
KHO1 180002Z 19009KT 16/M04 A3012 RMK A01 T01571036  RH  026%=      5-min Rain = 0
KHO1 180003Z 19008KT 16/M04 A3012 RMK A01 T01571036  RH  026%=      5-min Rain = 0
KHO1 180004Z 19008KT 16/M04 A3012 RMK A01 T01561036  RH  027%=      5-min Rain = 0
KHO1 180005Z 19008KT 16/M04 A3012 RMK A01 T01551036  RH  027%=      5-min Rain = 0
KHO1 180006Z 19008KT 15/M04 A3012 RMK A01 T01541036  RH  027%=      5-min Rain = 0
KHO1 180007Z 19008KT 15/M04 A3012 RMK A01 T01531036  RH  027%=      5-min Rain = 0
KHO1 180008Z 19008KT 15/M04 A3012 RMK A01 T01511036  RH  027%=      5-min Rain = 0
KHO1 180009Z 19009KT 15/M04 A3012 RMK A01 T01511036  RH  027%=      5-min Rain = 0
KHO1 180010Z 19008KT 15/M04 A3012 RMK A01 T01501036  RH  028%=      5-min Rain = 0
KHO1 180011Z 19008KT 15/M04 A3012 RMK A01 T01491036  RH  028%=      5-min Rain = 0
KHO1 180012Z 19008KT 15/M04 A3012 RMK A01 T01481036  RH  028%=      5-min Rain = 0
KHO1 180013Z 19008KT 15/M04 A3012 RMK A01 T01471036  RH  028%=      5-min Rain = 0
KHO1 180014Z 19008KT 15/M04 A3012 RMK A01 T01471036  RH  028%=      5-min Rain = 0
KHO1 180015Z 19008KT 15/M04 A3012 RMK A01 T01451036  RH  028%=      5-min Rain = 0
KHO1 180016Z 19009KT 15/M04 A3011 RMK A01 T01451036  RH  028%=      5-min Rain = 0
KHO1 180017Z 19008KT 14/M04 A3011 RMK A01 T01441035  RH  029%=      5-min Rain = 0
KHO1 180018Z 18008KT 14/M04 A3011 RMK A01 T01431035  RH  029%=      5-min Rain = 0
KHO1 180019Z 18007KT 14/M04 A3011 RMK A01 T01421035  RH  029%=      5-min Rain = 0
KHO1 180020Z 18008KT 14/M04 A3011 RMK A01 T01421035  RH  029%=      5-min Rain = 0
KHO1 180021Z 18007KT 14/M03 A3011 RMK A01 T01421034  RH  029%=      5-min Rain = 0
KHO1 180022Z 18007KT 14/M03 A3011 RMK A01 T01421034  RH  029%=      5-min Rain = 0
KHO1 180023Z 18008KT 14/M03 A3011 RMK A01 T01421034  RH  029%=      5-min Rain = 0
KHO1 180024Z 18008KT 14/M03 A3011 RMK A01 T01421034  RH  029%=      5-min Rain = 0
KHO1 180025Z 18007KT 14/M03 A3011 RMK A01 T01421034  RH  029%=      5-min Rain = 0
KHO1 180026Z 18008KT 14/M04 A3011 RMK A01 T01411035  RH  029%=      5-min Rain = 0
KHO1 180027Z 18008KT 14/M04 A3012 RMK A01 T01411035  RH  029%=      5-min Rain = 0
KHO1 180028Z 18007KT 14/M04 A3012 RMK A01 T01401035  RH  030%=      5-min Rain = 0
KHO1 180029Z 18007KT 14/M04 A3012 RMK A01 T01391035  RH  030%=      5-min Rain = 0
KHO1 180030Z 18006KT 14/M04 A3012 RMK A01 T01381035  RH  030%=      5-min Rain = 0
KHO1 180031Z 18006KT 14/M04 A3012 RMK A01 T01371035  RH  030%=      5-min Rain = 0
KHO1 180032Z 19007KT 14/M04 A3012 RMK A01 T01361035  RH  030%=      5-min Rain = 0
KHO1 180033Z 19006KT 14/M03 A3012 RMK A01 T01351034  RH  031%=      5-min Rain = 0
KHO1 180034Z 19006KT 13/M04 A3012 RMK A01 T01341035  RH  031%=      5-min Rain = 0
KHO1 180035Z 19006KT 13/M03 A3012 RMK A01 T01321034  RH  031%=      5-min Rain = 0
KHO1 180036Z 19007KT 13/M03 A3012 RMK A01 T01331034  RH  031%=      5-min Rain = 0
KHO1 180037Z 19006KT 13/M03 A3012 RMK A01 T01311034  RH  032%=      5-min Rain = 0
KHO1 180038Z 19006KT 13/M03 A3012 RMK A01 T01301033  RH  032%=      5-min Rain = 0
KHO1 180039Z 19006KT 13/M03 A3012 RMK A01 T01291033  RH  032%=      5-min Rain = 0
KHO1 180040Z 18006KT 13/M03 A3012 RMK A01 T01271033  RH  033%=      5-min Rain = 0
KHO1 180041Z 18006KT 13/M03 A3012 RMK A01 T01261033  RH  033%=      5-min Rain = 0
KHO1 180042Z 18006KT 13/M03 A3012 RMK A01 T01251033  RH  033%=      5-min Rain = 0
KHO1 180043Z 18005KT 12/M03 A3012 RMK A01 T01231032  RH  034%=      5-min Rain = 0
KHO1 180044Z 19005KT 12/M03 A3012 RMK A01 T01221032  RH  034%=      5-min Rain = 0
KHO1 180045Z 19005KT 12/M03 A3012 RMK A01 T01211032  RH  034%=      5-min Rain = 0
KHO1 180046Z 19005KT 12/M03 A3012 RMK A01 T01201032  RH  035%=      5-min Rain = 0
KHO1 180047Z 19005KT 12/M03 A3012 RMK A01 T01191031  RH  035%=      5-min Rain = 0
KHO1 180048Z 19005KT 12/M03 A3012 RMK A01 T01191030  RH  035%=      5-min Rain = 0
KHO1 180049Z 19005KT 12/M03 A3012 RMK A01 T01191030  RH  035%=      5-min Rain = 0
KHO1 180050Z 19005KT 12/M03 A3012 RMK A01 T01181030  RH  035%=      5-min Rain = 0
KHO1 180051Z 19006KT 12/M03 A3012 RMK A01 T01181030  RH  036%=      5-min Rain = 0
KHO1 180052Z 19005KT 12/M03 A3012 RMK A01 T01161030  RH  036%=      5-min Rain = 0
KHO1 180053Z 19005KT 12/M03 A3012 RMK A01 T01161030  RH  036%=      5-min Rain = 0
KHO1 180054Z 19005KT 12/M03 A3012 RMK A01 T01151030  RH  036%=      5-min Rain = 0
KHO1 180055Z 19005KT 11/M03 A3012 RMK A01 T01141030  RH  036%=      5-min Rain = 0
KHO1 180056Z 19006KT 11/M03 A3012 RMK A01 T01131030  RH  037%=      5-min Rain = 0
KHO1 180057Z 19006KT 11/M03 A3012 RMK A01 T01121030  RH  037%=      5-min Rain = 0
KHO1 180058Z 19006KT 11/M03 A3012 RMK A01 T01111030  RH  037%=      5-min Rain = 0
KHO1 180059Z 19006KT 11/M03 A3012 RMK A01 T01111029  RH  037%=      5-min Rain = 0
KHO1 180100Z 19005KT 11/M03 A3012 RMK A01 T01101029  RH  037%=      5-min Rain = 0
KHO1 180101Z 19005KT 11/M03 A3012 RMK A01 T01091029  RH  038%=      5-min Rain = 0
KHO1 180102Z 19005KT 11/M03 A3011 RMK A01 T01081029  RH  038%=      5-min Rain = 0
KHO1 180103Z 19006KT 11/M03 A3011 RMK A01 T01081029  RH  038%=      5-min Rain = 0
KHO1 180104Z 19005KT 11/M03 A3011 RMK A01 T01081029  RH  038%=      5-min Rain = 0
KHO1 180105Z 19005KT 11/M03 A3011 RMK A01 T01081028  RH  038%=      5-min Rain = 0
KHO1 180106Z 18005KT 11/M03 A3011 RMK A01 T01091028  RH  038%=      5-min Rain = 0
KHO1 180107Z 18006KT 11/M03 A3011 RMK A01 T01091028  RH  038%=      5-min Rain = 0
KHO1 180108Z 18006KT 11/M03 A3011 RMK A01 T01091028  RH  038%=      5-min Rain = 0
KHO1 180109Z 18006KT 11/M03 A3011 RMK A01 T01091027  RH  038%=      5-min Rain = 0
KHO1 180110Z 18006KT 11/M03 A3011 RMK A01 T01091028  RH  038%=      5-min Rain = 0
KHO1 180111Z 18006KT 11/M03 A3011 RMK A01 T01101027  RH  038%=      5-min Rain = 0
KHO1 180112Z 18006KT 11/M03 A3011 RMK A01 T01091027  RH  038%=      5-min Rain = 0
KHO1 180113Z 18006KT 11/M03 A3011 RMK A01 T01091027  RH  038%=      5-min Rain = 0
KHO1 180114Z 18005KT 11/M03 A3011 RMK A01 T01091027  RH  038%=      5-min Rain = 0
KHO1 180115Z 18005KT 11/M03 A3011 RMK A01 T01091027  RH  039%=      5-min Rain = 0
KHO1 180116Z 17005KT 11/M03 A3011 RMK A01 T01081026  RH  039%=      5-min Rain = 0
KHO1 180117Z 17005KT 11/M03 A3011 RMK A01 T01081026  RH  039%=      5-min Rain = 0
KHO1 180118Z 17005KT 11/M03 A3011 RMK A01 T01081026  RH  039%=      5-min Rain = 0
KHO1 180119Z 17006KT 11/M03 A3011 RMK A01 T01071025  RH  039%=      5-min Rain = 0
KHO1 180120Z 17006KT 11/M03 A3011 RMK A01 T01071025  RH  039%=      5-min Rain = 0
KHO1 180121Z 17006KT 11/M03 A3011 RMK A01 T01081025  RH  039%=      5-min Rain = 0
KHO1 180122Z 17006KT 11/M03 A3011 RMK A01 T01081025  RH  039%=      5-min Rain = 0
KHO1 180123Z 17006KT 11/M03 A3011 RMK A01 T01091026  RH  039%=      5-min Rain = 0
KHO1 180124Z 17006KT 11/M03 A3011 RMK A01 T01091026  RH  039%=      5-min Rain = 0
KHO1 180125Z 17006KT 11/M03 A3011 RMK A01 T01081026  RH  039%=      5-min Rain = 0
KHO1 180126Z 17006KT 11/M03 A3011 RMK A01 T01071027  RH  039%=      5-min Rain = 0
KHO1 180127Z 17006KT 11/M03 A3011 RMK A01 T01061027  RH  039%=      5-min Rain = 0
KHO1 180128Z 17006KT 11/M03 A3011 RMK A01 T01071026  RH  039%=      5-min Rain = 0
KHO1 180129Z 17005KT 11/M03 A3011 RMK A01 T01071026  RH  039%=      5-min Rain = 0
KHO1 180130Z 18006KT 11/M03 A3011 RMK A01 T01051026  RH  040%=      5-min Rain = 0
KHO1 180131Z 18006KT 10/M03 A3011 RMK A01 T01041025  RH  040%=      5-min Rain = 0
KHO1 180132Z 17006KT 10/M03 A3011 RMK A01 T01041025  RH  040%=      5-min Rain = 0
KHO1 180133Z 18006KT 11/M03 A3011 RMK A01 T01051025  RH  040%=      5-min Rain = 0
KHO1 180134Z 18007KT 10/M03 A3011 RMK A01 T01041025  RH  040%=      5-min Rain = 0
KHO1 180135Z 18007KT 10/M03 A3011 RMK A01 T01041025  RH  041%=      5-min Rain = 0
KHO1 180136Z 18007KT 10/M02 A3011 RMK A01 T01031024  RH  041%=      5-min Rain = 0
KHO1 180137Z 18007KT 10/M02 A3011 RMK A01 T01041024  RH  041%=      5-min Rain = 0
KHO1 180138Z 18007KT 10/M02 A3011 RMK A01 T01041024  RH  041%=      5-min Rain = 0
KHO1 180139Z 18007KT 10/M02 A3011 RMK A01 T01041023  RH  041%=      5-min Rain = 0
KHO1 180140Z 18007KT 10/M02 A3011 RMK A01 T01031023  RH  041%=      5-min Rain = 0
KHO1 180141Z 18006KT 10/M02 A3011 RMK A01 T01021023  RH  041%=      5-min Rain = 0
KHO1 180142Z 18006KT 10/M02 A3011 RMK A01 T01011023  RH  042%=      5-min Rain = 0
KHO1 180143Z 18006KT 10/M02 A3011 RMK A01 T01011022  RH  042%=      5-min Rain = 0
KHO1 180144Z 18006KT 10/M02 A3011 RMK A01 T01011022  RH  042%=      5-min Rain = 0
KHO1 180145Z 18006KT 10/M02 A3011 RMK A01 T01021022  RH  042%=      5-min Rain = 0
KHO1 180146Z 18006KT 10/M02 A3011 RMK A01 T01021022  RH  042%=      5-min Rain = 0
KHO1 180147Z 18006KT 10/M02 A3011 RMK A01 T01021022  RH  042%=      5-min Rain = 0
KHO1 180148Z 18006KT 10/M02 A3011 RMK A01 T01021022  RH  042%=      5-min Rain = 0
KHO1 180149Z 18005KT 10/M02 A3011 RMK A01 T01021021  RH  042%=      5-min Rain = 0
KHO1 180150Z 18006KT 10/M02 A3011 RMK A01 T01021021  RH  042%=      5-min Rain = 0
KHO1 180151Z 18006KT 10/M02 A3011 RMK A01 T01021021  RH  042%=      5-min Rain = 0
KHO1 180152Z 18006KT 10/M02 A3011 RMK A01 T01021021  RH  042%=      5-min Rain = 0
KHO1 180153Z 18006KT 10/M02 A3011 RMK A01 T01021021  RH  042%=      5-min Rain = 0
KHO1 180154Z 17006KT 10/M02 A3011 RMK A01 T01021020  RH  042%=      5-min Rain = 0
KHO1 180155Z 17005KT 10/M02 A3011 RMK A01 T01021021  RH  042%=      5-min Rain = 0
KHO1 180156Z 17006KT 10/M02 A3011 RMK A01 T01011021  RH  042%=      5-min Rain = 0
KHO1 180157Z 17005KT 10/M02 A3011 RMK A01 T01011020  RH  043%=      5-min Rain = 0
KHO1 180158Z 17005KT 10/M02 A3011 RMK A01 T01001020  RH  043%=      5-min Rain = 0
KHO1 180159Z 17006KT 10/M02 A3011 RMK A01 T01011020  RH  043%=      5-min Rain = 0
KHO1 180200Z 17006KT 10/M02 A3011 RMK A01 T01001020  RH  043%=      5-min Rain = 0
KHO1 180201Z 17006KT 10/M02 A3011 RMK A01 T01001020  RH  043%=      5-min Rain = 0
KHO1 180202Z 17006KT 10/M02 A3011 RMK A01 T01001020  RH  043%=      5-min Rain = 0
KHO1 180203Z 17006KT 10/M02 A3011 RMK A01 T01001019  RH  043%=      5-min Rain = 0
KHO1 180204Z 17006KT 10/M02 A3011 RMK A01 T01001019  RH  043%=      5-min Rain = 0
KHO1 180205Z 17006KT 10/M02 A3011 RMK A01 T01001019  RH  043%=      5-min Rain = 0
KHO1 180206Z 18006KT 10/M02 A3011 RMK A01 T01001019  RH  043%=      5-min Rain = 0
KHO1 180207Z 18006KT 10/M02 A3011 RMK A01 T00991019  RH  044%=      5-min Rain = 0
KHO1 180208Z 17005KT 10/M02 A3011 RMK A01 T00981019  RH  044%=      5-min Rain = 0
KHO1 180209Z 17006KT 10/M02 A3011 RMK A01 T00981019  RH  044%=      5-min Rain = 0
KHO1 180210Z 17005KT 10/M02 A3011 RMK A01 T00981018  RH  044%=      5-min Rain = 0
KHO1 180211Z 17006KT 10/M02 A3011 RMK A01 T00991019  RH  044%=      5-min Rain = 0
KHO1 180212Z 17005KT 10/M02 A3011 RMK A01 T00991019  RH  044%=      5-min Rain = 0
KHO1 180213Z 17005KT 10/M02 A3011 RMK A01 T00991019  RH  044%=      5-min Rain = 0
KHO1 180214Z 17005KT 10/M02 A3011 RMK A01 T00991019  RH  044%=      5-min Rain = 0
KHO1 180215Z 17006KT 10/M02 A3011 RMK A01 T00991019  RH  044%=      5-min Rain = 0
KHO1 180216Z 17006KT 10/M02 A3011 RMK A01 T00991019  RH  044%=      5-min Rain = 0
KHO1 180217Z 18006KT 10/M02 A3011 RMK A01 T00991018  RH  044%=      5-min Rain = 0
KHO1 180218Z 18006KT 10/M02 A3011 RMK A01 T00991018  RH  044%=      5-min Rain = 0
KHO1 180219Z 18006KT 10/M02 A3011 RMK A01 T00981018  RH  044%=      5-min Rain = 0
KHO1 180220Z 18007KT 10/M02 A3011 RMK A01 T00981018  RH  044%=      5-min Rain = 0
KHO1 180221Z 18007KT 10/M02 A3011 RMK A01 T00981017  RH  045%=      5-min Rain = 0
KHO1 180222Z 18007KT 10/M02 A3011 RMK A01 T00981017  RH  045%=      5-min Rain = 0
KHO1 180223Z 18007KT 10/M02 A3011 RMK A01 T00971017  RH  045%=      5-min Rain = 0
KHO1 180224Z 18007KT 10/M02 A3011 RMK A01 T00961017  RH  045%=      5-min Rain = 0
KHO1 180225Z 18007KT 10/M02 A3011 RMK A01 T00961017  RH  045%=      5-min Rain = 0
KHO1 180226Z 18006KT 10/M02 A3011 RMK A01 T00951017  RH  046%=      5-min Rain = 0
KHO1 180227Z 18006KT 10/M02 A3011 RMK A01 T00951016  RH  046%=      5-min Rain = 0
KHO1 180228Z 18007KT 09/M02 A3011 RMK A01 T00941016  RH  046%=      5-min Rain = 0
KHO1 180229Z 18007KT 09/M02 A3011 RMK A01 T00941016  RH  046%=      5-min Rain = 0
KHO1 180230Z 18006KT 09/M02 A3011 RMK A01 T00931016  RH  046%=      5-min Rain = 0
KHO1 180231Z 19006KT 09/M02 A3011 RMK A01 T00931015  RH  047%=      5-min Rain = 0
KHO1 180232Z 19007KT 09/M02 A3011 RMK A01 T00921015  RH  047%=      5-min Rain = 0
KHO1 180233Z 19007KT 09/M02 A3011 RMK A01 T00921015  RH  047%=      5-min Rain = 0
KHO1 180234Z 19008KT 09/M01 A3011 RMK A01 T00921014  RH  047%=      5-min Rain = 0
KHO1 180235Z 19008KT 09/M01 A3011 RMK A01 T00921014  RH  048%=      5-min Rain = 0
KHO1 180236Z 19008KT 09/M01 A3011 RMK A01 T00921014  RH  048%=      5-min Rain = 0
KHO1 180237Z 19008KT 09/M01 A3011 RMK A01 T00911014  RH  048%=      5-min Rain = 0
KHO1 180238Z 19008KT 09/M01 A3011 RMK A01 T00911014  RH  048%=      5-min Rain = 0
KHO1 180239Z 19007KT 09/M01 A3011 RMK A01 T00901014  RH  048%=      5-min Rain = 0
KHO1 180240Z 19007KT 09/M02 A3011 RMK A01 T00891015  RH  048%=      5-min Rain = 0
KHO1 180241Z 20008KT 09/M02 A3011 RMK A01 T00881015  RH  049%=      5-min Rain = 0
KHO1 180242Z 20007KT 09/M02 A3011 RMK A01 T00871015  RH  049%=      5-min Rain = 0
KHO1 180243Z 20007KT 09/M01 A3011 RMK A01 T00861014  RH  049%=      5-min Rain = 0
KHO1 180244Z 20007KT 09/M01 A3011 RMK A01 T00851014  RH  050%=      5-min Rain = 0
KHO1 180245Z 20007KT 08/M01 A3011 RMK A01 T00841014  RH  050%=      5-min Rain = 0
KHO1 180246Z 20007KT 08/M01 A3011 RMK A01 T00831014  RH  050%=      5-min Rain = 0
KHO1 180247Z 20007KT 08/M01 A3011 RMK A01 T00831014  RH  051%=      5-min Rain = 0
KHO1 180248Z 20007KT 08/M01 A3011 RMK A01 T00831014  RH  051%=      5-min Rain = 0
KHO1 180249Z 20007KT 08/M01 A3011 RMK A01 T00821014  RH  051%=      5-min Rain = 0
KHO1 180250Z 20007KT 08/M01 A3011 RMK A01 T00821014  RH  051%=      5-min Rain = 0
KHO1 180251Z 20007KT 08/M01 A3011 RMK A01 T00811014  RH  051%=      5-min Rain = 0
KHO1 180252Z 20007KT 08/M01 A3011 RMK A01 T00811013  RH  051%=      5-min Rain = 0
KHO1 180253Z 19007KT 08/M01 A3011 RMK A01 T00801013  RH  052%=      5-min Rain = 0
KHO1 180254Z 19006KT 08/M01 A3011 RMK A01 T00801013  RH  052%=      5-min Rain = 0
KHO1 180255Z 19007KT 08/M01 A3011 RMK A01 T00791013  RH  052%=      5-min Rain = 0
KHO1 180256Z 20007KT 08/M01 A3011 RMK A01 T00781013  RH  052%=      5-min Rain = 0
KHO1 180257Z 19006KT 08/M01 A3011 RMK A01 T00781013  RH  053%=      5-min Rain = 0
KHO1 180258Z 19006KT 08/M01 A3011 RMK A01 T00781013  RH  053%=      5-min Rain = 0
KHO1 180259Z 19006KT 08/M01 A3011 RMK A01 T00771013  RH  053%=      5-min Rain = 0
KHO1 180300Z 19006KT 08/M01 A3011 RMK A01 T00771013  RH  053%=      5-min Rain = 0
KHO1 180301Z 19006KT 08/M01 A3011 RMK A01 T00771012  RH  053%=      5-min Rain = 0
KHO1 180302Z 19006KT 08/M01 A3011 RMK A01 T00771012  RH  053%=      5-min Rain = 0
KHO1 180303Z 19006KT 08/M01 A3011 RMK A01 T00781012  RH  053%=      5-min Rain = 0
KHO1 180304Z 19006KT 08/M01 A3011 RMK A01 T00781012  RH  053%=      5-min Rain = 0
KHO1 180305Z 19006KT 08/M01 A3011 RMK A01 T00791011  RH  053%=      5-min Rain = 0
KHO1 180306Z 19006KT 08/M01 A3011 RMK A01 T00791011  RH  053%=      5-min Rain = 0
KHO1 180307Z 19005KT 08/M01 A3011 RMK A01 T00791012  RH  053%=      5-min Rain = 0
KHO1 180308Z 19005KT 08/M01 A3011 RMK A01 T00791012  RH  053%=      5-min Rain = 0
KHO1 180309Z 19005KT 08/M01 A3011 RMK A01 T00791012  RH  053%=      5-min Rain = 0
KHO1 180310Z 19005KT 08/M01 A3011 RMK A01 T00791012  RH  052%=      5-min Rain = 0
KHO1 180311Z 19005KT 08/M01 A3011 RMK A01 T00791012  RH  052%=      5-min Rain = 0
KHO1 180312Z 19005KT 08/M01 A3011 RMK A01 T00791012  RH  052%=      5-min Rain = 0
KHO1 180313Z 19005KT 08/M01 A3011 RMK A01 T00791012  RH  053%=      5-min Rain = 0
KHO1 180314Z 19005KT 08/M01 A3011 RMK A01 T00791012  RH  053%=      5-min Rain = 0
KHO1 180315Z 19005KT 08/M01 A3011 RMK A01 T00791012  RH  053%=      5-min Rain = 0
KHO1 180316Z 19005KT 08/M01 A3011 RMK A01 T00791012  RH  053%=      5-min Rain = 0
KHO1 180317Z 19005KT 08/M01 A3011 RMK A01 T00791012  RH  053%=      5-min Rain = 0
KHO1 180318Z 19005KT 08/M01 A301 RMK A01 T00801011  RH  052%=      5-min Rain = 0
KHO1 180319Z 19005KT 08/M01 A301 RMK A01 T00811011  RH  052%=      5-min Rain = 0
KHO1 180320Z 19005KT 08/M01 A301 RMK A01 T00811012  RH  052%=      5-min Rain = 0
KHO1 180321Z 19005KT 08/M01 A301 RMK A01 T00811012  RH  052%=      5-min Rain = 0
KHO1 180322Z 19005KT 08/M01 A301 RMK A01 T00821011  RH  052%=      5-min Rain = 0
KHO1 180323Z 19005KT 08/M01 A301 RMK A01 T00831011  RH  052%=      5-min Rain = 0
KHO1 180324Z 19005KT 08/M01 A301 RMK A01 T00841011  RH  051%=      5-min Rain = 0
KHO1 180325Z 18005KT 09/M01 A301 RMK A01 T00851011  RH  051%=      5-min Rain = 0
KHO1 180326Z 18005KT 09/M01 A301 RMK A01 T00851011  RH  051%=      5-min Rain = 0
KHO1 180327Z 18005KT 09/M01 A301 RMK A01 T00861011  RH  050%=      5-min Rain = 0
KHO1 180328Z 18005KT 09/M01 A301 RMK A01 T00871011  RH  050%=      5-min Rain = 0
KHO1 180329Z 18005KT 09/M01 A301 RMK A01 T00871011  RH  050%=      5-min Rain = 0
KHO1 180330Z 18005KT 09/M01 A301 RMK A01 T00861011  RH  050%=      5-min Rain = 0
KHO1 180331Z 18006KT 09/M01 A301 RMK A01 T00861011  RH  050%=      5-min Rain = 0
KHO1 180332Z 18005KT 09/M01 A301 RMK A01 T00861011  RH  051%=      5-min Rain = 0
KHO1 180333Z 18006KT 09/M01 A301 RMK A01 T00851011  RH  051%=      5-min Rain = 0
KHO1 180334Z 18006KT 09/M01 A301 RMK A01 T00851011  RH  051%=      5-min Rain = 0
KHO1 180335Z 18006KT 09/M01 A301 RMK A01 T00851010  RH  051%=      5-min Rain = 0
KHO1 180336Z 18006KT 09/M01 A301 RMK A01 T00851010  RH  051%=      5-min Rain = 0
KHO1 180337Z 18006KT 09/M01 A301 RMK A01 T00851010  RH  051%=      5-min Rain = 0
KHO1 180338Z 17005KT 09/M01 A301 RMK A01 T00861010  RH  051%=      5-min Rain = 0
KHO1 180339Z 17006KT 09/M01 A301 RMK A01 T00861010  RH  051%=      5-min Rain = 0
KHO1 180340Z 17006KT 09/M01 A301 RMK A01 T00851010  RH  051%=      5-min Rain = 0
KHO1 180341Z 17006KT 08/M01 A301 RMK A01 T00841011  RH  051%=      5-min Rain = 0
KHO1 180342Z 17006KT 08/M01 A301 RMK A01 T00831010  RH  052%=      5-min Rain = 0
KHO1 180343Z 17006KT 08/M01 A301 RMK A01 T00811011  RH  052%=      5-min Rain = 0
KHO1 180344Z 17006KT 08/M01 A301 RMK A01 T00801011  RH  053%=      5-min Rain = 0
KHO1 180345Z 17005KT 08/M01 A301 RMK A01 T00801010  RH  053%=      5-min Rain = 0
KHO1 180346Z 17005KT 08/M01 A301 RMK A01 T00791011  RH  053%=      5-min Rain = 0
KHO1 180347Z 17005KT 08/M01 A301 RMK A01 T00771011  RH  054%=      5-min Rain = 0
KHO1 180348Z 17005KT 08/M01 A301 RMK A01 T00771010  RH  054%=      5-min Rain = 0
KHO1 180349Z 18005KT 08/M01 A301 RMK A01 T00781010  RH  054%=      5-min Rain = 0
KHO1 180350Z 18004KT 08/M01 A301 RMK A01 T00791009  RH  054%=      5-min Rain = 0
KHO1 180351Z 18005KT 08/M01 A301 RMK A01 T00791009  RH  054%=      5-min Rain = 0
KHO1 180352Z 17005KT 08/M01 A301 RMK A01 T00791009  RH  054%=      5-min Rain = 0
KHO1 180353Z 18004KT 08/M01 A301 RMK A01 T00801009  RH  054%=      5-min Rain = 0
KHO1 180354Z 19004KT 08/M01 A301 RMK A01 T00801009  RH  053%=      5-min Rain = 0
KHO1 180355Z 17005KT 08/M01 A301 RMK A01 T00801009  RH  053%=      5-min Rain = 0
KHO1 180356Z 17006KT 08/M01 A3009 RMK A01 T00791009  RH  054%=      5-min Rain = 0
KHO1 180357Z 20004KT 08/M01 A301 RMK A01 T00781009  RH  054%=      5-min Rain = 0
KHO1 180358Z 22004KT 08/M01 A301 RMK A01 T00771009  RH  054%=      5-min Rain = 0
KHO1 180359Z 20004KT 08/M01 A301 RMK A01 T00761009  RH  055%=      5-min Rain = 0
KHO1 180400Z 18005KT 08/M01 A3009 RMK A01 T00751009  RH  055%=      5-min Rain = 0
KHO1 180401Z 17006KT 08/M01 A3009 RMK A01 T00751009  RH  055%=      5-min Rain = 0
KHO1 180402Z 18005KT 08/M01 A3009 RMK A01 T00751008  RH  056%=      5-min Rain = 0
KHO1 180403Z 19005KT 08/M01 A3009 RMK A01 T00761007  RH  055%=      5-min Rain = 0
KHO1 180404Z 20005KT 08/M01 A3009 RMK A01 T00771007  RH  055%=      5-min Rain = 0
KHO1 180405Z 20004KT 08/M01 A3009 RMK A01 T00771008  RH  055%=      5-min Rain = 0
KHO1 180406Z 20004KT 08/M01 A3009 RMK A01 T00771007  RH  055%=      5-min Rain = 0
KHO1 180407Z 20005KT 08/M01 A3009 RMK A01 T00781007  RH  055%=      5-min Rain = 0
KHO1 180408Z 20005KT 08/M01 A3009 RMK A01 T00791007  RH  055%=      5-min Rain = 0
KHO1 180409Z 20005KT 08/M01 A3009 RMK A01 T00791007  RH  055%=      5-min Rain = 0
KHO1 180410Z 20005KT 08/M01 A3009 RMK A01 T00791007  RH  054%=      5-min Rain = 0
KHO1 180411Z 20005KT 08/M01 A3009 RMK A01 T00801007  RH  054%=      5-min Rain = 0
KHO1 180412Z 20006KT 08/M01 A3009 RMK A01 T00801007  RH  054%=      5-min Rain = 0
KHO1 180413Z 20005KT 08/M01 A3009 RMK A01 T00811007  RH  054%=      5-min Rain = 0
KHO1 180414Z 20005KT 08/M01 A3009 RMK A01 T00821007  RH  054%=      5-min Rain = 0
KHO1 180415Z 20006KT 08/M01 A3009 RMK A01 T00821007  RH  053%=      5-min Rain = 0
KHO1 180416Z 20005KT 08/M01 A3009 RMK A01 T00821007  RH  053%=      5-min Rain = 0
KHO1 180417Z 20005KT 08/M01 A3009 RMK A01 T00821007  RH  053%=      5-min Rain = 0
KHO1 180418Z 19006KT 08/M01 A3009 RMK A01 T00821007  RH  053%=      5-min Rain = 0
KHO1 180419Z 20006KT 08/M01 A3009 RMK A01 T00821007  RH  053%=      5-min Rain = 0
KHO1 180420Z 20006KT 08/M01 A3009 RMK A01 T00821007  RH  053%=      5-min Rain = 0
KHO1 180421Z 20007KT 08/M01 A3009 RMK A01 T00821007  RH  053%=      5-min Rain = 0
KHO1 180422Z 19007KT 08/M01 A3009 RMK A01 T00831007  RH  053%=      5-min Rain = 0
KHO1 180423Z 19007KT 08/M01 A3009 RMK A01 T00841007  RH  053%=      5-min Rain = 0
KHO1 180424Z 20006KT 08/M01 A3009 RMK A01 T00841007  RH  053%=      5-min Rain = 0
KHO1 180425Z 20007KT 08/M01 A3009 RMK A01 T00841007  RH  053%=      5-min Rain = 0
KHO1 180426Z 20007KT 09/M01 A3009 RMK A01 T00851006  RH  053%=      5-min Rain = 0
KHO1 180427Z 19008KT 09/M01 A3009 RMK A01 T00851006  RH  053%=      5-min Rain = 0
KHO1 180428Z 19008KT 09/M01 A3009 RMK A01 T00861006  RH  052%=      5-min Rain = 0
KHO1 180429Z 20007KT 09/M01 A3008 RMK A01 T00861006  RH  052%=      5-min Rain = 0
KHO1 180430Z 20007KT 09/M01 A3008 RMK A01 T00861007  RH  052%=      5-min Rain = 0
KHO1 180431Z 20008KT 09/M01 A3008 RMK A01 T00861006  RH  052%=      5-min Rain = 0
KHO1 180432Z 20007KT 09/M01 A3008 RMK A01 T00861006  RH  052%=      5-min Rain = 0
KHO1 180433Z 20007KT 09/M01 A3008 RMK A01 T00861006  RH  052%=      5-min Rain = 0
KHO1 180434Z 21008KT 09/M01 A3008 RMK A01 T00871006  RH  052%=      5-min Rain = 0
KHO1 180435Z 21008KT 09/M01 A3008 RMK A01 T00881006  RH  052%=      5-min Rain = 0
KHO1 180436Z 21008KT 09/M01 A3008 RMK A01 T00891006  RH  051%=      5-min Rain = 0
KHO1 180437Z 21008KT 09/M01 A3008 RMK A01 T00891006  RH  051%=      5-min Rain = 0
KHO1 180438Z 21008KT 09/M01 A3008 RMK A01 T00901006  RH  051%=      5-min Rain = 0
KHO1 180439Z 21008KT 09/M01 A3008 RMK A01 T00901006  RH  051%=      5-min Rain = 0
KHO1 180440Z 21009KT 09/M01 A3008 RMK A01 T00901006  RH  051%=      5-min Rain = 0
KHO1 180441Z 21008KT 09/M01 A3008 RMK A01 T00901006  RH  051%=      5-min Rain = 0
KHO1 180442Z 21009KT 09/M01 A3008 RMK A01 T00911006  RH  051%=      5-min Rain = 0
KHO1 180443Z 22009KT 09/M01 A3008 RMK A01 T00911006  RH  051%=      5-min Rain = 0
KHO1 180444Z 22009KT 09/M01 A3008 RMK A01 T00911007  RH  050%=      5-min Rain = 0
KHO1 180445Z 22010KT 09/M01 A3008 RMK A01 T00911007  RH  050%=      5-min Rain = 0
KHO1 180446Z 21009KT 09/M01 A3008 RMK A01 T00911007  RH  050%=      5-min Rain = 0
KHO1 180447Z 21009KT 09/M01 A3008 RMK A01 T00901007  RH  051%=      5-min Rain = 0
KHO1 180448Z 22009KT 09/M01 A3008 RMK A01 T00891007  RH  051%=      5-min Rain = 0
KHO1 180449Z 21009KT 09/M01 A3008 RMK A01 T00891008  RH  051%=      5-min Rain = 0
KHO1 180450Z 21009KT 09/M01 A3007 RMK A01 T00881008  RH  051%=      5-min Rain = 0
KHO1 180451Z 21009KT 09/M01 A3007 RMK A01 T00871008  RH  051%=      5-min Rain = 0
KHO1 180452Z 21010KT 09/M01 A3007 RMK A01 T00861008  RH  052%=      5-min Rain = 0
KHO1 180453Z 21009KT 09/M01 A3007 RMK A01 T00861008  RH  052%=      5-min Rain = 0
KHO1 180454Z 21009KT 09/M01 A3007 RMK A01 T00861008  RH  052%=      5-min Rain = 0
KHO1 180455Z 21010KT 09/M01 A3007 RMK A01 T00851008  RH  052%=      5-min Rain = 0
KHO1 180456Z 21010KT 09/M01 A3007 RMK A01 T00851008  RH  052%=      5-min Rain = 0
KHO1 180457Z 21010KT 09/M01 A3007 RMK A01 T00851008  RH  052%=      5-min Rain = 0
KHO1 180458Z 22010KT 09/M01 A3007 RMK A01 T00851008  RH  052%=      5-min Rain = 0
KHO1 180459Z 22009KT 08/M01 A3007 RMK A01 T00841008  RH  052%=      5-min Rain = 0
KHO1 180500Z 22008KT 08/M01 A3008 RMK A01 T00831008  RH  053%=      5-min Rain = 0
KHO1 180501Z 21009KT 08/M01 A3008 RMK A01 T00831008  RH  053%=      5-min Rain = 0
KHO1 180502Z 22009KT 08/M01 A3008 RMK A01 T00831007  RH  053%=      5-min Rain = 0
KHO1 180503Z 22008KT 08/M01 A3008 RMK A01 T00831007  RH  053%=      5-min Rain = 0
KHO1 180504Z 22008KT 08/M01 A3008 RMK A01 T00821007  RH  053%=      5-min Rain = 0
KHO1 180505Z 22010KT 08/M01 A3008 RMK A01 T00831007  RH  053%=      5-min Rain = 0
KHO1 180506Z 22009KT 08/M01 A3008 RMK A01 T00831007  RH  053%=      5-min Rain = 0
KHO1 180507Z 22009KT 08/M01 A3008 RMK A01 T00831007  RH  053%=      5-min Rain = 0
KHO1 180508Z 22009KT 08/M01 A3008 RMK A01 T00831007  RH  053%=      5-min Rain = 0
KHO1 180509Z 22009KT 08/M01 A3008 RMK A01 T00841006  RH  053%=      5-min Rain = 0
KHO1 180510Z 22009KT 08/M01 A3008 RMK A01 T00841006  RH  053%=      5-min Rain = 0
KHO1 180511Z 22008KT 08/M01 A3007 RMK A01 T00841007  RH  053%=      5-min Rain = 0
KHO1 180512Z 22009KT 08/M01 A3008 RMK A01 T00831007  RH  053%=      5-min Rain = 0
KHO1 180513Z 22009KT 08/M01 A3007 RMK A01 T00831007  RH  053%=      5-min Rain = 0
KHO1 180514Z 22009KT 08/M01 A3007 RMK A01 T00841007  RH  053%=      5-min Rain = 0
KHO1 180515Z 22009KT 08/M01 A3007 RMK A01 T00831007  RH  053%=      5-min Rain = 0
KHO1 180516Z 22010KT 08/M01 A3007 RMK A01 T00841007  RH  053%=      5-min Rain = 0
KHO1 180517Z 21010KT 08/M01 A3007 RMK A01 T00841007  RH  053%=      5-min Rain = 0
KHO1 180518Z 21010KT 08/M01 A3007 RMK A01 T00841007  RH  053%=      5-min Rain = 0
KHO1 180519Z 21010KT 08/M01 A3007 RMK A01 T00831007  RH  053%=      5-min Rain = 0
KHO1 180520Z 21010KT 08/M01 A3007 RMK A01 T00831007  RH  053%=      5-min Rain = 0
KHO1 180521Z 21010KT 08/M01 A3007 RMK A01 T00821007  RH  053%=      5-min Rain = 0
KHO1 180522Z 21010KT 08/M01 A3007 RMK A01 T00821007  RH  054%=      5-min Rain = 0
KHO1 180523Z 21010KT 08/M01 A3007 RMK A01 T00811007  RH  054%=      5-min Rain = 0
KHO1 180524Z 21010KT 08/M01 A3007 RMK A01 T00811007  RH  054%=      5-min Rain = 0
KHO1 180525Z 21010KT 08/M01 A3007 RMK A01 T00811007  RH  054%=      5-min Rain = 0
KHO1 180526Z 21009KT 08/M01 A3007 RMK A01 T00801007  RH  054%=      5-min Rain = 0
KHO1 180527Z 20010KT 08/M01 A3007 RMK A01 T00801007  RH  054%=      5-min Rain = 0
KHO1 180528Z 21009KT 08/M01 A3007 RMK A01 T00791007  RH  055%=      5-min Rain = 0
KHO1 180529Z 21009KT 08/M01 A3007 RMK A01 T00791007  RH  055%=      5-min Rain = 0
KHO1 180530Z 21009KT 08/M01 A3007 RMK A01 T00791007  RH  055%=      5-min Rain = 0
KHO1 180531Z 21009KT 08/M01 A3007 RMK A01 T00791007  RH  055%=      5-min Rain = 0
KHO1 180532Z 21009KT 08/M01 A3007 RMK A01 T00791007  RH  055%=      5-min Rain = 0
KHO1 180533Z 21009KT 08/M01 A3007 RMK A01 T00791007  RH  055%=      5-min Rain = 0
KHO1 180534Z 21008KT 08/M01 A3007 RMK A01 T00781007  RH  055%=      5-min Rain = 0
KHO1 180535Z 21009KT 08/M01 A3007 RMK A01 T00781006  RH  055%=      5-min Rain = 0
KHO1 180536Z 21009KT 08/M01 A3007 RMK A01 T00791006  RH  055%=      5-min Rain = 0
KHO1 180537Z 21009KT 08/M01 A3007 RMK A01 T00801006  RH  055%=      5-min Rain = 0
KHO1 180538Z 21009KT 08/M01 A3007 RMK A01 T00801006  RH  054%=      5-min Rain = 0
KHO1 180539Z 21009KT 08/M01 A3007 RMK A01 T00811006  RH  054%=      5-min Rain = 0
KHO1 180540Z 21010KT 08/M01 A3007 RMK A01 T00801006  RH  054%=      5-min Rain = 0
KHO1 180541Z 21010KT 08/M01 A3007 RMK A01 T00811006  RH  054%=      5-min Rain = 0
KHO1 180542Z 21009KT 08/M01 A3007 RMK A01 T00811006  RH  054%=      5-min Rain = 0
KHO1 180543Z 21010KT 08/M01 A3007 RMK A01 T00811006  RH  054%=      5-min Rain = 0
KHO1 180544Z 21011KT 08/M01 A3007 RMK A01 T00821006  RH  054%=      5-min Rain = 0
KHO1 180545Z 21010KT 08/M01 A3007 RMK A01 T00821006  RH  054%=      5-min Rain = 0
KHO1 180546Z 21010KT 08/M01 A3007 RMK A01 T00821006  RH  054%=      5-min Rain = 0
KHO1 180547Z 21010KT 08/M01 A3007 RMK A01 T00821006  RH  054%=      5-min Rain = 0
KHO1 180548Z 21010KT 08/M01 A3007 RMK A01 T00831006  RH  054%=      5-min Rain = 0
KHO1 180549Z 20010KT 08/M01 A3007 RMK A01 T00821006  RH  054%=      5-min Rain = 0
KHO1 180550Z 21010KT 08/M01 A3007 RMK A01 T00821006  RH  054%=      5-min Rain = 0
KHO1 180551Z 20010KT 08/M01 A3007 RMK A01 T00821006  RH  054%=      5-min Rain = 0
KHO1 180552Z 20012KT 08/M01 A3007 RMK A01 T00831006  RH  054%=      5-min Rain = 0
KHO1 180553Z 20011KT 08/M01 A3007 RMK A01 T00841006  RH  053%=      5-min Rain = 0
KHO1 180554Z 21011KT 08/M01 A3007 RMK A01 T00831006  RH  053%=      5-min Rain = 0
KHO1 180555Z 20011KT 08/M01 A3007 RMK A01 T00831006  RH  053%=      5-min Rain = 0
KHO1 180556Z 20011KT 08/M01 A3007 RMK A01 T00821006  RH  054%=      5-min Rain = 0
KHO1 180557Z 21011KT 08/M01 A3007 RMK A01 T00821006  RH  054%=      5-min Rain = 0
KHO1 180558Z 21012KT 08/M01 A3007 RMK A01 T00821006  RH  054%=      5-min Rain = 0
KHO1 180559Z 20011KT 08/M01 A3007 RMK A01 T00821006  RH  054%=      5-min Rain = 0

Page generated in 0.0762 seconds.